Bel Air, Maryland - USA |
Today's Data File |
9/3/26
Time Wind Dir Wind Spd Wind Gust Hum In Humidity Temp In Temp Raw Barom Wind Chill Press Alt Cloud Base Dens Alt Temp Out R DailyRain 24HrRain RainRate
� mph mph % % �F �F in �F ft ft ft �F/hr in in in/hr
12:00am 194 0 0 44 100 73.8 71.9 29.48 71.9 410 0 1359 -0.08 0.00 0.31 0.000
12:01am 194 0 0 44 100 73.6 71.9 29.48 71.9 407 0 1356 -0.08 0.00 0.31 0.000
12:02am 195 0 0 44 100 73.6 71.9 29.48 71.9 408 0 1357 -0.08 0.00 0.31 0.000
12:03am 194 0 0 44 100 73.6 71.9 29.48 71.9 412 0 1362 -0.07 0.00 0.31 0.000
12:04am 194 0 0 44 100 73.6 71.8 29.47 71.8 415 0 1359 -0.17 0.00 0.31 0.000
12:05am 195 0 0 44 100 73.6 71.9 29.47 71.9 418 0 1368 -0.07 0.00 0.31 0.000
12:06am 194 0 0 44 100 73.6 71.8 29.47 71.8 418 0 1363 -0.17 0.00 0.31 0.000
12:07am 194 0 0 44 100 73.6 71.8 29.47 71.8 418 0 1363 -0.17 0.00 0.31 0.000
12:08am 195 0 0 44 100 73.6 71.9 29.47 71.9 418 0 1370 -0.06 0.00 0.31 0.000
12:09am 194 0 0 44 100 73.6 71.8 29.47 71.8 418 0 1363 -0.16 0.00 0.31 0.000
12:10am 195 0 0 44 100 73.6 71.9 29.47 71.9 418 0 1370 -0.06 0.00 0.31 0.000
12:11am 195 0 0 44 100 73.6 71.9 29.47 71.9 418 0 1370 -0.06 0.00 0.31 0.000
12:12am 194 0 0 44 100 73.6 71.9 29.47 71.9 418 0 1370 -0.06 0.00 0.31 0.000
12:13am 195 0 0 44 100 73.6 71.9 29.47 71.9 419 0 1371 -0.06 0.00 0.31 0.000
12:14am 194 0 0 44 100 73.6 72.0 29.47 72.0 419 0 1377 0.04 0.00 0.31 0.000
12:15am 195 0 0 44 100 73.6 72.0 29.47 72.0 418 0 1375 0.04 0.00 0.31 0.000
12:16am 195 0 0 44 100 73.6 71.9 29.47 71.9 417 0 1367 -0.06 0.00 0.31 0.000
12:17am 194 0 0 44 100 73.5 72.0 29.47 72.0 418 0 1376 0.04 0.00 0.31 0.000
12:18am 194 0 0 44 100 73.5 71.9 29.47 71.9 419 0 1371 -0.06 0.00 0.31 0.000
12:19am 195 0 0 44 100 73.5 71.9 29.47 71.9 419 0 1371 -0.06 0.00 0.31 0.000
12:20am 194 0 0 44 100 73.5 71.9 29.47 71.9 420 0 1372 -0.06 0.00 0.31 0.000
12:21am 195 0 0 44 100 73.5 72.0 29.47 72.0 420 0 1378 0.04 0.00 0.31 0.000
12:22am 195 0 0 44 100 73.5 71.9 29.47 71.9 420 0 1372 -0.06 0.00 0.31 0.000
12:23am 194 0 0 44 100 73.5 71.9 29.47 71.9 420 0 1372 -0.06 0.00 0.31 0.000
12:24am 195 0 0 44 100 73.5 71.9 29.47 71.9 421 0 1373 -0.06 0.00 0.31 0.000
12:25am 195 0 0 44 100 73.5 71.9 29.47 71.9 423 0 1375 -0.06 0.00 0.31 0.000
12:26am 195 0 0 44 100 73.5 71.9 29.46 71.9 424 0 1376 -0.06 0.00 0.31 0.000
12:27am 195 0 0 44 100 73.5 71.9 29.46 71.9 424 0 1376 -0.06 0.00 0.31 0.000
12:28am 194 0 0 44 100 73.5 72.0 29.47 72.0 423 0 1382 0.04 0.00 0.31 0.000
12:29am 195 0 0 44 100 73.5 72.0 29.47 72.0 422 0 1380 0.04 0.00 0.31 0.000
12:30am 195 0 0 44 100 73.5 72.0 29.47 72.0 420 0 1378 0.04 0.00 0.31 0.000
12:31am 195 0 0 44 100 73.5 71.9 29.47 71.9 420 0 1372 -0.06 0.00 0.31 0.000
12:32am 194 0 0 46 100 73.5 72.0 29.47 72.0 421 0 1379 0.04 0.00 0.31 0.000
12:33am 195 0 0 44 100 73.5 71.9 29.47 71.9 421 0 1373 -0.06 0.00 0.31 0.000
12:34am 195 0 0 44 100 73.5 71.9 29.47 71.9 422 0 1374 -0.06 0.00 0.31 0.000
12:35am 194 0 0 44 100 73.5 72.0 29.46 72.0 424 0 1383 0.04 0.00 0.31 0.000
12:36am 194 0 0 44 100 73.5 72.0 29.46 72.0 426 0 1385 0.04 0.00 0.31 0.000
12:37am 194 0 0 44 100 73.5 72.0 29.46 72.0 424 0 1383 0.04 0.00 0.31 0.000
12:38am 194 0 0 44 100 73.6 72.0 29.46 72.0 424 0 1383 0.04 0.00 0.31 0.000
12:39am 194 0 0 44 100 73.6 72.0 29.46 72.0 424 0 1383 0.04 0.00 0.31 0.000
12:40am 194 0 0 44 100 73.6 72.0 29.46 72.0 424 0 1383 0.04 0.00 0.31 0.000
12:41am 195 0 0 44 100 73.6 72.0 29.47 72.0 423 0 1382 0.04 0.00 0.31 0.000
12:42am 195 0 0 44 100 73.6 72.0 29.46 72.0 424 0 1383 0.04 0.00 0.31 0.000
12:43am 194 0 0 44 100 73.6 72.1 29.46 72.1 426 0 1391 0.14 0.00 0.31 0.000
12:44am 194 0 0 44 100 73.6 72.1 29.46 72.1 429 0 1395 0.14 0.00 0.31 0.000
12:45am 195 0 0 44 100 73.6 72.1 29.46 72.1 432 0 1399 0.14 0.00 0.31 0.000
12:46am 194 0 0 44 100 73.6 72.1 29.45 72.1 433 0 1400 0.13 0.00 0.31 0.000
12:47am 194 0 0 44 100 73.6 72.1 29.46 72.1 432 0 1399 0.13 0.00 0.31 0.000
12:48am 195 0 0 44 100 73.6 72.1 29.46 72.1 431 0 1398 0.13 0.00 0.31 0.000
12:49am 194 0 0 44 100 73.6 72.1 29.46 72.1 429 0 1396 0.13 0.00 0.31 0.000
12:50am 195 0 0 44 100 73.6 72.1 29.46 72.1 428 0 1394 0.13 0.00 0.31 0.000
12:51am 195 0 0 44 100 73.6 72.1 29.46 72.1 428 0 1394 0.12 0.00 0.31 0.000
12:52am 195 0 0 44 100 73.6 72.1 29.46 72.1 428 0 1394 0.12 0.00 0.31 0.000
12:53am 195 0 0 44 100 73.5 72.1 29.46 72.1 428 0 1394 0.12 0.00 0.31 0.000
12:54am 195 0 0 44 100 73.5 72.1 29.46 72.1 427 0 1392 0.12 0.00 0.31 0.000
12:55am 195 0 0 44 100 73.5 72.1 29.46 72.1 426 0 1391 0.12 0.00 0.31 0.000
12:56am 194 0 0 44 100 73.5 72.1 29.46 72.1 427 0 1392 0.12 0.00 0.30 0.000
12:57am 194 0 0 44 100 73.5 72.1 29.46 72.1 427 0 1392 0.11 0.00 0.30 0.000
12:58am 195 0 0 44 100 73.5 72.1 29.46 72.1 428 0 1394 0.11 0.00 0.30 0.000
12:59am 195 0 0 44 100 73.5 72.1 29.46 72.1 431 0 1398 0.11 0.00 0.30 0.000
1:00am 195 0 0 44 100 73.5 72.1 29.46 72.1 432 0 1399 0.11 0.00 0.30 0.000
1:01am 195 0 0 44 100 73.5 72.1 29.45 72.1 433 0 1400 0.11 0.00 0.30 0.000
1:02am 194 0 0 44 100 73.5 72.1 29.45 72.1 433 0 1400 0.10 0.00 0.30 0.000
1:03am 195 0 0 44 100 73.5 72.1 29.45 72.1 433 0 1400 0.10 0.00 0.30 0.000
1:04am 195 0 0 44 100 73.5 72.1 29.45 72.1 434 0 1401 0.10 0.00 0.30 0.000
1:05am 195 0 0 44 100 73.5 72.0 29.45 72.0 434 0 1395 0.00 0.00 0.30 0.000
1:06am 195 0 0 44 100 73.5 72.0 29.45 72.0 434 0 1395 0.00 0.00 0.30 0.000
1:07am 194 0 0 44 100 73.5 72.1 29.45 72.1 434 0 1401 0.10 0.00 0.30 0.000
1:08am 195 0 0 44 100 73.5 72.1 29.45 72.1 434 0 1401 0.10 0.00 0.30 0.000
1:09am 195 0 0 44 100 73.5 72.1 29.45 72.1 433 0 1400 0.10 0.00 0.30 0.000
1:10am 195 0 0 44 100 73.5 72.1 29.46 72.1 431 0 1398 0.09 0.00 0.30 0.000
1:11am 195 0 0 44 100 73.5 72.1 29.46 72.1 430 0 1397 0.09 0.00 0.30 0.000
1:12am 195 0 0 44 100 73.5 72.1 29.46 72.1 432 0 1399 0.09 0.00 0.30 0.000
1:13am 195 0 0 44 100 73.5 72.1 29.45 72.1 433 0 1400 0.09 0.00 0.30 0.000
1:14am 195 0 0 44 100 73.5 72.1 29.45 72.1 433 0 1400 0.09 0.00 0.30 0.000
1:15am 195 0 0 44 100 73.5 72.2 29.46 72.2 431 0 1404 0.19 0.00 0.30 0.000
1:16am 195 0 0 44 100 73.5 72.1 29.46 72.1 429 0 1396 0.08 0.00 0.30 0.000
1:17am 195 0 0 44 100 73.5 72.2 29.46 72.2 428 0 1400 0.18 0.00 0.30 0.000
1:18am 195 0 0 44 100 73.5 72.2 29.46 72.2 427 0 1399 0.18 0.00 0.30 0.000
1:19am 195 0 0 44 100 73.5 72.2 29.46 72.2 428 0 1400 0.18 0.00 0.30 0.000
1:20am 195 0 0 44 100 73.5 72.2 29.46 72.2 429 0 1402 0.17 0.00 0.30 0.000
1:21am 195 0 0 44 100 73.5 72.2 29.46 72.2 431 0 1404 0.17 0.00 0.30 0.000
1:22am 195 0 0 44 100 73.5 72.2 29.46 72.2 431 0 1404 0.17 0.00 0.30 0.000
1:23am 195 0 0 44 100 73.5 72.3 29.46 72.3 431 0 1411 0.26 0.00 0.30 0.000
1:24am 195 0 0 44 100 73.5 72.3 29.46 72.3 431 0 1411 0.26 0.00 0.30 0.000
1:25am 195 0 0 44 100 73.5 72.3 29.46 72.3 432 0 1412 0.25 0.00 0.30 0.000
1:26am 195 0 0 44 100 73.5 72.4 29.45 72.4 433 0 1419 0.35 0.00 0.30 0.000
1:27am 195 0 0 44 100 73.5 72.4 29.45 72.4 434 0 1421 0.34 0.00 0.30 0.000
1:28am 194 0 0 44 100 73.6 72.4 29.45 72.4 434 0 1421 0.34 0.00 0.30 0.000
1:29am 195 0 0 44 100 73.5 72.4 29.45 72.4 434 0 1421 0.33 0.00 0.30 0.000
1:30am 195 0 0 44 100 73.5 72.4 29.45 72.4 435 0 1422 0.33 0.00 0.30 0.000
1:31am 195 0 0 44 100 73.5 72.5 29.45 72.5 435 0 1428 0.42 0.00 0.30 0.000
1:32am 195 0 0 44 100 73.5 72.5 29.45 72.5 435 0 1428 0.42 0.00 0.30 0.000
1:33am 194 0 0 44 100 73.5 72.5 29.45 72.5 435 0 1428 0.41 0.00 0.30 0.000
1:34am 195 0 0 44 100 73.5 72.5 29.45 72.5 435 0 1428 0.40 0.00 0.30 0.000
1:35am 195 0 0 44 100 73.5 72.5 29.45 72.5 435 0 1428 0.39 0.00 0.30 0.000
1:36am 195 0 0 44 100 73.5 72.5 29.45 72.5 434 0 1427 0.39 0.00 0.30 0.000
1:37am 195 0 0 44 100 73.5 72.5 29.45 72.5 434 0 1427 0.38 0.00 0.30 0.000
1:38am 195 0 0 44 100 73.5 72.5 29.45 72.5 434 0 1427 0.38 0.00 0.30 0.000
1:39am 194 0 0 44 100 73.5 72.5 29.45 72.5 434 0 1427 0.37 0.00 0.30 0.000
1:40am 195 0 0 44 100 73.5 72.5 29.45 72.5 434 0 1427 0.36 0.00 0.30 0.000
1:41am 194 0 0 44 100 73.5 72.5 29.45 72.5 434 0 1427 0.36 0.00 0.30 0.000
1:42am 195 0 0 44 100 73.5 72.5 29.45 72.5 434 0 1427 0.35 0.00 0.30 0.000
1:43am 195 0 0 44 100 73.5 72.5 29.45 72.5 434 0 1427 0.34 0.00 0.30 0.000
1:44am 194 0 0 44 100 73.3 72.5 29.45 72.5 434 0 1427 0.34 0.00 0.30 0.000
1:45am 195 0 0 44 100 73.3 72.5 29.45 72.5 433 0 1426 0.33 0.00 0.30 0.000
1:46am 195 0 0 44 100 73.3 72.5 29.45 72.5 433 0 1426 0.33 0.00 0.30 0.000
1:47am 195 0 0 44 100 73.3 72.6 29.46 72.6 432 0 1431 0.42 0.00 0.30 0.000
1:48am 195 0 0 44 100 73.3 72.5 29.46 72.5 431 0 1424 0.32 0.00 0.30 0.000
1:49am 195 0 0 44 100 73.3 72.6 29.46 72.6 431 0 1430 0.41 0.00 0.30 0.000
1:50am 195 0 0 44 100 73.3 72.5 29.46 72.5 431 0 1424 0.30 0.00 0.30 0.000
1:51am 195 0 0 44 100 73.5 72.5 29.46 72.5 431 0 1424 0.30 0.00 0.30 0.000
1:52am 194 0 0 44 100 73.5 72.6 29.46 72.6 431 0 1430 0.39 0.00 0.30 0.000
1:53am 194 0 0 44 100 73.5 72.6 29.46 72.6 430 0 1429 0.39 0.00 0.30 0.000
1:54am 195 0 0 44 100 73.5 72.6 29.46 72.6 429 0 1426 0.38 0.00 0.30 0.000
1:55am 195 0 0 44 100 73.5 72.6 29.46 72.6 426 0 1423 0.37 0.00 0.30 0.000
1:56am 195 0 0 44 100 73.5 72.6 29.47 72.6 423 0 1420 0.37 0.00 0.30 0.000
1:57am 195 0 0 44 100 73.5 72.6 29.47 72.6 421 0 1417 0.36 0.00 0.30 0.000
1:58am 195 0 0 44 100 73.5 72.6 29.47 72.6 420 0 1416 0.36 0.00 0.30 0.000
1:59am 194 0 0 44 100 73.5 72.6 29.47 72.6 420 0 1416 0.35 0.00 0.30 0.000
2:00am 194 0 0 44 100 73.5 72.6 29.47 72.6 419 0 1415 0.34 0.00 0.30 0.000
2:01am 194 0 0 44 100 73.5 72.6 29.47 72.6 419 0 1415 0.34 0.00 0.30 0.000
2:02am 195 0 0 44 100 73.5 72.7 29.47 72.7 419 0 1422 0.43 0.00 0.30 0.000
2:03am 195 0 0 44 100 73.5 72.6 29.47 72.6 420 0 1416 0.33 0.00 0.30 0.000
2:04am 180 1 1 44 100 73.5 72.6 29.47 72.6 420 0 1416 0.32 0.00 0.30 0.000
2:05am 70 1 3 44 100 73.5 72.6 29.47 72.6 420 0 1416 0.32 0.00 0.30 0.000
2:06am 79 4 4 44 100 73.5 72.6 29.47 72.6 421 0 1417 0.31 0.00 0.30 0.000
2:07am 33 1 4 44 100 73.5 72.6 29.47 72.6 421 0 1417 0.31 0.00 0.30 0.000
2:08am 33 1 5 44 100 73.5 72.6 29.47 72.6 421 0 1417 0.30 0.00 0.30 0.000
2:09am 35 2 5 44 100 73.5 72.6 29.47 72.6 421 0 1417 0.30 0.00 0.30 0.000
2:10am 35 1 5 44 100 73.5 72.6 29.47 72.6 422 0 1419 0.29 0.00 0.30 0.000
2:11am 25 3 5 44 100 73.5 72.5 29.47 72.5 421 0 1411 0.19 0.00 0.30 0.000
2:12am 27 0 5 44 100 73.5 72.5 29.47 72.5 421 0 1411 0.18 0.00 0.30 0.000
2:13am 27 1 5 44 100 73.5 72.5 29.47 72.5 422 0 1412 0.18 0.00 0.30 0.000
2:14am 28 1 5 44 100 73.5 72.5 29.47 72.5 422 0 1412 0.18 0.00 0.30 0.000
2:15am 28 0 5 44 100 73.5 72.5 29.47 72.5 422 0 1412 0.18 0.00 0.30 0.000
2:16am 28 0 1 44 100 73.5 72.5 29.47 72.5 422 0 1412 0.17 0.00 0.30 0.000
2:17am 28 1 2 44 100 73.5 72.5 29.47 72.5 422 0 1412 0.17 0.00 0.30 0.000
2:18am 29 1 2 44 100 73.5 72.5 29.47 72.5 422 0 1412 0.17 0.00 0.30 0.000
2:19am 30 1 3 44 100 73.5 72.5 29.47 72.5 422 0 1412 0.16 0.00 0.30 0.000
2:20am 30 1 3 44 100 73.5 72.5 29.47 72.5 422 0 1412 0.16 0.00 0.30 0.000
2:21am 30 1 2 44 100 73.5 72.5 29.47 72.5 421 0 1411 0.16 0.00 0.29 0.000
2:22am 30 3 3 44 100 73.5 72.5 29.47 72.5 421 0 1411 0.16 0.00 0.29 0.000
2:23am 30 0 3 44 100 73.5 72.5 29.47 72.5 421 0 1411 0.15 0.00 0.29 0.000
2:24am 30 1 3 44 100 73.5 72.4 29.47 72.4 422 0 1406 0.05 0.00 0.29 0.000
2:25am 30 2 3 44 100 73.5 72.5 29.47 72.5 423 0 1413 0.15 0.00 0.29 0.000
2:26am 30 2 2 44 100 73.3 72.5 29.46 72.5 424 0 1414 0.15 0.00 0.29 0.000
2:27am 30 2 3 44 100 73.3 72.5 29.47 72.5 423 0 1413 0.15 0.00 0.29 0.000
2:28am 30 1 3 44 100 73.3 72.4 29.46 72.4 424 0 1408 0.05 0.00 0.29 0.000
2:29am 30 0 3 44 100 73.3 72.5 29.46 72.5 425 0 1416 0.14 0.00 0.29 0.000
2:30am 30 0 3 45 100 73.3 72.4 29.46 72.4 426 0 1410 0.04 0.00 0.29 0.000
2:31am 30 2 3 44 100 73.3 72.5 29.46 72.5 427 0 1418 0.14 0.00 0.29 0.000
2:32am 30 2 3 44 100 73.3 72.4 29.46 72.4 427 0 1412 0.04 0.00 0.29 0.000
2:33am 30 1 3 44 100 73.3 72.4 29.46 72.4 427 0 1412 0.04 0.00 0.29 0.000
2:34am 30 2 3 44 100 73.3 72.4 29.46 72.4 427 0 1412 0.04 0.00 0.29 0.000
2:35am 31 1 3 44 100 73.3 72.5 29.46 72.5 429 0 1420 0.14 0.00 0.29 0.000
2:36am 31 2 2 44 100 73.3 72.4 29.46 72.4 429 0 1415 0.04 0.00 0.29 0.000
2:37am 31 0 2 44 100 73.3 72.4 29.46 72.4 431 0 1417 0.04 0.00 0.29 0.000
2:38am 31 0 2 44 100 73.3 72.4 29.46 72.4 432 0 1418 0.03 0.00 0.29 0.000
2:39am 31 1 2 44 100 73.3 72.4 29.45 72.4 433 0 1419 0.03 0.00 0.29 0.000
2:40am 31 2 2 44 100 73.3 72.4 29.45 72.4 433 0 1419 0.03 0.00 0.29 0.000
2:41am 31 1 2 44 100 73.3 72.4 29.45 72.4 434 0 1421 0.03 0.00 0.29 0.000
2:42am 31 1 2 44 100 73.3 72.4 29.45 72.4 434 0 1421 0.03 0.00 0.29 0.000
2:43am 31 0 2 44 100 73.5 72.4 29.45 72.4 435 0 1422 0.03 0.00 0.29 0.000
2:44am 31 1 2 44 100 73.5 72.4 29.45 72.4 435 0 1422 0.03 0.00 0.29 0.000
2:45am 87 2 4 44 100 73.5 72.4 29.45 72.4 435 0 1422 0.03 0.00 0.29 0.000
2:46am 87 0 3 44 100 73.5 72.4 29.45 72.4 435 0 1422 0.03 0.00 0.29 0.000
2:47am 87 0 3 44 100 73.5 72.4 29.45 72.4 436 0 1423 0.03 0.00 0.29 0.000
2:48am 87 0 3 44 100 73.5 72.4 29.45 72.4 437 0 1424 0.03 0.00 0.29 0.000
2:49am 87 0 3 44 100 73.5 72.3 29.45 72.3 437 0 1418 -0.07 0.00 0.29 0.000
2:50am 87 0 3 44 100 73.5 72.3 29.45 72.3 437 0 1418 -0.07 0.00 0.29 0.000
2:51am 87 0 0 44 100 73.5 72.3 29.45 72.3 436 0 1416 -0.07 0.00 0.29 0.000
2:52am 87 0 0 44 100 73.5 72.4 29.45 72.4 436 0 1423 0.03 0.00 0.29 0.000
2:53am 87 0 0 44 100 73.5 72.3 29.45 72.3 436 0 1416 -0.07 0.00 0.29 0.000
2:54am 87 1 1 44 100 73.5 72.3 29.45 72.3 437 0 1418 -0.07 0.00 0.29 0.000
2:55am 87 0 2 44 100 73.5 72.3 29.45 72.3 437 0 1418 -0.06 0.00 0.29 0.000
2:56am 87 0 1 44 100 73.5 72.3 29.45 72.3 437 0 1418 -0.06 0.00 0.29 0.000
2:57am 87 0 1 44 100 73.5 72.3 29.45 72.3 435 0 1415 -0.06 0.00 0.29 0.000
2:58am 87 1 2 44 100 73.5 72.3 29.45 72.3 435 0 1415 -0.06 0.00 0.29 0.000
2:59am 87 1 2 44 100 73.5 72.3 29.45 72.3 435 0 1415 -0.06 0.00 0.29 0.000
3:00am 87 0 2 44 100 73.5 72.3 29.45 72.3 435 0 1415 -0.06 0.00 0.29 0.000
3:01am 87 1 2 44 100 73.5 72.3 29.45 72.3 435 0 1415 -0.06 0.00 0.29 0.000
3:02am 87 0 2 44 100 73.5 72.3 29.45 72.3 436 0 1416 -0.06 0.00 0.29 0.000
3:03am 87 1 2 44 100 73.5 72.3 29.45 72.3 436 0 1416 -0.06 0.00 0.29 0.000
3:04am 87 0 2 44 100 73.5 72.4 29.45 72.4 437 0 1424 0.04 0.00 0.29 0.000
3:05am 87 1 2 44 100 73.5 72.4 29.45 72.4 436 0 1423 0.04 0.00 0.29 0.000
3:06am 87 2 2 44 100 73.5 72.4 29.45 72.4 436 0 1423 0.04 0.00 0.29 0.000
3:07am 87 3 3 44 100 73.5 72.3 29.45 72.3 435 0 1415 -0.06 0.00 0.29 0.000
3:08am 87 2 3 44 100 73.5 72.3 29.45 72.3 436 0 1416 -0.06 0.00 0.29 0.000
3:09am 87 1 3 44 100 73.5 72.3 29.45 72.3 436 0 1416 -0.06 0.00 0.29 0.000
3:10am 87 0 3 44 100 73.5 72.4 29.45 72.4 438 0 1425 0.04 0.00 0.29 0.000
3:11am 87 1 2 44 100 73.5 72.4 29.45 72.4 438 0 1425 0.04 0.00 0.29 0.000
3:12am 87 2 2 44 100 73.5 72.4 29.45 72.4 437 0 1424 0.04 0.00 0.29 0.000
3:13am 87 0 2 44 100 73.5 72.3 29.45 72.3 436 0 1416 -0.06 0.00 0.29 0.000
3:14am 87 1 2 44 100 73.5 72.4 29.45 72.4 436 0 1423 0.04 0.00 0.29 0.000
3:15am 87 0 2 44 100 73.5 72.3 29.45 72.3 435 0 1415 -0.06 0.00 0.29 0.000
3:16am 87 0 0 44 100 73.5 72.3 29.45 72.3 435 0 1415 -0.06 0.00 0.29 0.000
3:17am 87 0 0 44 100 73.5 72.3 29.45 72.3 434 0 1414 -0.05 0.00 0.29 0.000
3:18am 87 0 1 44 100 73.3 72.3 29.45 72.3 433 0 1413 -0.05 0.00 0.29 0.000
3:19am 87 0 1 44 100 73.3 72.3 29.46 72.3 431 0 1411 -0.05 0.00 0.29 0.000
3:20am 87 0 1 44 100 73.3 72.2 29.46 72.2 430 0 1403 -0.15 0.00 0.29 0.000
3:21am 87 0 0 44 100 73.3 72.3 29.46 72.3 429 0 1409 -0.05 0.00 0.29 0.000
3:22am 87 0 0 44 100 73.3 72.2 29.46 72.2 429 0 1402 -0.15 0.00 0.29 0.000
3:23am 87 0 0 44 100 73.3 72.3 29.46 72.3 428 0 1406 -0.05 0.00 0.29 0.000
3:24am 87 0 1 44 100 73.3 72.3 29.46 72.3 428 0 1406 -0.05 0.00 0.29 0.000
3:25am 87 0 1 44 100 73.3 72.2 29.46 72.2 428 0 1400 -0.15 0.00 0.29 0.000
3:26am 87 0 0 44 100 73.3 72.3 29.46 72.3 430 0 1410 -0.04 0.00 0.29 0.000
3:27am 87 0 0 44 100 73.3 72.3 29.46 72.3 430 0 1410 -0.04 0.00 0.29 0.000
3:28am 87 0 0 44 100 73.3 72.3 29.46 72.3 429 0 1409 -0.04 0.00 0.29 0.000
3:29am 87 0 0 44 100 73.3 72.2 29.46 72.2 428 0 1400 -0.14 0.00 0.29 0.000
3:30am 87 0 0 44 100 73.3 72.3 29.46 72.3 428 0 1406 -0.04 0.00 0.29 0.000
3:31am 87 0 0 44 100 73.5 72.3 29.46 72.3 428 0 1406 -0.04 0.00 0.29 0.000
3:32am 87 0 0 44 100 73.5 72.2 29.46 72.2 429 0 1401 -0.13 0.00 0.29 0.000
3:33am 87 0 0 44 100 73.5 72.3 29.46 72.3 430 0 1410 -0.03 0.00 0.29 0.000
3:34am 87 0 0 44 100 73.5 72.3 29.46 72.3 431 0 1411 -0.03 0.00 0.29 0.000
3:35am 87 0 0 44 100 73.5 72.3 29.45 72.3 433 0 1413 -0.03 0.00 0.29 0.000
3:36am 87 0 0 44 100 73.5 72.3 29.45 72.3 434 0 1414 -0.03 0.00 0.29 0.000
3:37am 87 0 0 44 100 73.5 72.3 29.45 72.3 434 0 1414 -0.03 0.00 0.29 0.000
3:38am 87 0 0 44 100 73.5 72.3 29.45 72.3 434 0 1414 -0.03 0.00 0.29 0.000
3:39am 87 0 0 44 100 73.5 72.3 29.45 72.3 434 0 1414 -0.03 0.00 0.29 0.000
3:40am 87 0 0 44 100 73.5 72.3 29.45 72.3 434 0 1414 -0.03 0.00 0.29 0.000
3:41am 87 0 0 44 100 73.5 72.3 29.45 72.3 434 0 1414 -0.03 0.00 0.29 0.000
3:42am 87 0 0 44 100 73.5 72.3 29.45 72.3 434 0 1414 -0.03 0.00 0.29 0.000
3:43am 87 0 0 44 100 73.5 72.3 29.45 72.3 434 0 1414 -0.03 0.00 0.29 0.000
3:44am 87 3 3 44 100 73.5 72.3 29.45 72.3 433 0 1413 -0.03 0.00 0.29 0.000
3:45am 87 2 3 44 100 73.5 72.2 29.45 72.2 433 0 1407 -0.13 0.00 0.29 0.000
3:46am 87 2 3 44 100 73.5 72.3 29.45 72.3 434 0 1414 -0.02 0.00 0.29 0.000
3:47am 87 1 3 44 100 73.5 72.3 29.45 72.3 434 0 1414 -0.02 0.00 0.29 0.000
3:48am 87 1 3 44 100 73.5 72.3 29.45 72.3 434 0 1414 -0.02 0.00 0.29 0.000
3:49am 87 3 3 44 100 73.5 72.3 29.45 72.3 434 0 1414 -0.02 0.00 0.29 0.000
3:50am 87 1 3 44 100 73.5 72.3 29.45 72.3 434 0 1414 -0.02 0.00 0.29 0.000
3:51am 87 2 3 44 100 73.6 72.3 29.45 72.3 434 0 1414 -0.02 0.00 0.29 0.000
3:52am 87 0 3 44 100 73.6 72.4 29.45 72.4 434 0 1421 0.08 0.00 0.29 0.000
3:53am 87 0 3 44 100 73.6 72.3 29.46 72.3 432 0 1412 -0.02 0.00 0.29 0.000
3:54am 87 0 3 44 100 73.6 72.3 29.46 72.3 432 0 1412 -0.02 0.00 0.29 0.000
3:55am 87 0 3 44 100 73.6 72.4 29.46 72.4 431 0 1417 0.08 0.00 0.29 0.000
3:56am 87 0 0 44 100 73.5 72.4 29.46 72.4 430 0 1416 0.08 0.00 0.29 0.000
3:57am 87 0 0 44 100 73.5 72.4 29.46 72.4 429 0 1415 0.07 0.00 0.29 0.000
3:58am 87 0 0 44 100 73.5 72.4 29.46 72.4 429 0 1415 0.07 0.00 0.29 0.000
3:59am 87 0 0 44 100 73.5 72.4 29.46 72.4 429 0 1414 0.07 0.00 0.29 0.000
4:00am 87 0 0 44 100 73.5 72.4 29.46 72.4 428 0 1413 0.07 0.00 0.29 0.000
4:01am 87 0 0 44 100 73.5 72.5 29.46 72.5 427 0 1418 0.17 0.00 0.29 0.000
4:02am 87 0 0 44 100 73.5 72.4 29.46 72.4 429 0 1414 0.07 0.00 0.29 0.000
4:03am 87 0 0 44 100 73.5 72.5 29.46 72.5 429 0 1420 0.17 0.00 0.29 0.000
4:04am 87 1 4 44 100 73.5 72.4 29.46 72.4 429 0 1414 0.06 0.00 0.29 0.000
4:05am 87 0 4 44 100 73.5 72.5 29.46 72.5 429 0 1420 0.16 0.00 0.29 0.000
4:06am 87 1 2 44 100 73.5 72.5 29.46 72.5 429 0 1420 0.16 0.00 0.29 0.000
4:07am 87 0 2 44 100 73.5 72.5 29.46 72.5 429 0 1420 0.15 0.00 0.29 0.000
4:08am 87 0 2 44 100 73.5 72.5 29.46 72.5 429 0 1421 0.15 0.00 0.29 0.000
4:09am 87 1 2 44 100 73.3 72.5 29.46 72.5 429 0 1421 0.15 0.00 0.29 0.000
4:10am 87 0 2 44 100 73.3 72.5 29.46 72.5 431 0 1424 0.15 0.00 0.29 0.000
4:11am 87 0 0 44 100 73.3 72.5 29.46 72.5 432 0 1425 0.15 0.00 0.29 0.000
4:12am 87 2 2 44 100 73.3 72.5 29.46 72.5 432 0 1425 0.14 0.00 0.29 0.000
4:13am 87 2 2 44 100 73.3 72.5 29.45 72.5 433 0 1426 0.14 0.00 0.29 0.000
4:14am 87 0 2 44 100 73.3 72.5 29.45 72.5 433 0 1426 0.14 0.00 0.29 0.000
4:15am 87 0 2 44 100 73.3 72.5 29.45 72.5 434 0 1427 0.14 0.00 0.29 0.000
4:16am 87 1 1 44 100 73.3 72.5 29.45 72.5 434 0 1427 0.13 0.00 0.29 0.000
4:17am 87 1 2 44 100 73.3 72.5 29.45 72.5 435 0 1428 0.13 0.00 0.29 0.000
4:18am 87 0 2 44 100 73.3 72.5 29.45 72.5 435 0 1428 0.13 0.00 0.29 0.000
4:19am 87 0 2 44 100 73.5 72.5 29.45 72.5 435 0 1428 0.13 0.00 0.29 0.000
4:20am 87 2 3 44 100 73.5 72.5 29.45 72.5 436 0 1429 0.13 0.00 0.29 0.000
4:21am 87 2 3 44 100 73.5 72.5 29.45 72.5 437 0 1430 0.12 0.00 0.29 0.000
4:22am 87 4 4 44 100 73.5 72.6 29.45 72.6 437 0 1437 0.22 0.00 0.29 0.000
4:23am 87 2 4 44 100 73.5 72.6 29.45 72.6 438 0 1438 0.22 0.00 0.29 0.000
4:24am 87 4 4 44 100 73.5 72.6 29.45 72.6 438 0 1438 0.21 0.00 0.29 0.000
4:25am 87 2 4 44 100 73.5 72.6 29.45 72.6 437 0 1437 0.21 0.00 0.29 0.000
4:26am 87 1 2 44 100 73.5 72.6 29.45 72.6 437 0 1437 0.21 0.00 0.29 0.000
4:27am 160 3 5 44 100 73.5 72.6 29.45 72.6 438 0 1438 0.20 0.00 0.29 0.000
4:28am 193 3 5 44 100 73.5 72.6 29.45 72.6 437 0 1437 0.20 0.00 0.29 0.000
4:29am 202 1 5 44 100 73.5 72.6 29.45 72.6 437 0 1437 0.20 0.00 0.29 0.000
4:30am 237 6 6 44 100 73.5 72.6 29.45 72.6 437 0 1437 0.19 0.00 0.29 0.000
4:31am 161 2 6 44 100 73.5 72.6 29.45 72.6 437 0 1437 0.19 0.00 0.29 0.000
4:32am 93 1 6 44 100 73.5 72.6 29.45 72.6 436 0 1435 0.18 0.00 0.29 0.000
4:33am 93 1 6 44 100 73.5 72.7 29.45 72.7 435 0 1441 0.28 0.00 0.29 0.000
4:34am 193 3 6 44 100 73.5 72.6 29.45 72.6 435 0 1434 0.18 0.00 0.29 0.000
4:35am 100 2 6 44 100 73.5 72.6 29.45 72.6 435 0 1434 0.17 0.00 0.29 0.000
4:36am 186 1 4 44 100 73.5 72.7 29.45 72.7 435 0 1441 0.27 0.00 0.29 0.000
4:37am 129 4 4 44 100 73.5 72.7 29.45 72.7 436 0 1442 0.26 0.00 0.29 0.000
4:38am 129 1 5 44 100 73.5 72.7 29.45 72.7 436 0 1442 0.26 0.00 0.29 0.000
4:39am 177 6 6 44 100 73.5 72.7 29.45 72.7 436 0 1442 0.26 0.00 0.29 0.000
4:40am 168 1 6 44 100 73.5 72.7 29.45 72.7 435 0 1441 0.25 0.00 0.29 0.000
4:41am 135 1 3 44 100 73.6 72.7 29.45 72.7 435 0 1441 0.25 0.00 0.29 0.000
4:42am 135 1 3 44 100 73.6 72.7 29.45 72.7 434 0 1440 0.24 0.00 0.29 0.000
4:43am 135 0 3 44 100 73.6 72.7 29.45 72.7 434 0 1440 0.24 0.00 0.29 0.000
4:44am 135 1 3 44 100 73.6 72.7 29.45 72.7 433 0 1438 0.24 0.00 0.29 0.000
4:45am 135 2 3 44 100 73.6 72.7 29.46 72.7 431 0 1436 0.23 0.00 0.29 0.000
4:46am 135 1 2 44 100 73.6 72.7 29.46 72.7 429 0 1433 0.23 0.00 0.29 0.000
4:47am 123 2 4 44 100 73.6 72.7 29.46 72.7 426 0 1429 0.22 0.00 0.29 0.000
4:48am 123 0 4 44 100 73.6 72.7 29.46 72.7 424 0 1427 0.22 0.00 0.29 0.000
4:49am 123 1 4 44 100 73.6 72.8 29.47 72.8 423 0 1432 0.32 0.00 0.29 0.000
4:50am 123 4 4 44 100 73.6 72.7 29.47 72.7 422 0 1425 0.21 0.00 0.29 0.000
4:51am 89 3 4 44 100 73.6 72.7 29.47 72.7 421 0 1424 0.21 0.00 0.29 0.000
4:52am 89 1 5 44 100 73.6 72.7 29.47 72.7 421 0 1424 0.21 0.00 0.29 0.000
4:53am 89 1 5 44 100 73.6 72.7 29.47 72.7 420 0 1423 0.20 0.00 0.29 0.000
4:54am 28 2 6 44 100 73.6 72.7 29.47 72.7 420 0 1423 0.20 0.00 0.29 0.000
4:55am 28 1 6 44 100 73.6 72.7 29.47 72.7 420 0 1423 0.20 0.00 0.29 0.000
4:56am 28 1 2 44 100 73.5 72.7 29.47 72.7 420 0 1423 0.19 0.00 0.29 0.000
4:57am 28 0 2 44 100 73.5 72.7 29.47 72.7 420 0 1423 0.19 0.00 0.29 0.000
4:58am 28 1 2 44 100 73.5 72.7 29.47 72.7 419 0 1422 0.19 0.00 0.29 0.000
4:59am 28 1 2 44 100 73.5 72.6 29.47 72.6 419 0 1415 0.08 0.00 0.29 0.000
5:00am 28 1 2 44 100 73.5 72.7 29.47 72.7 418 0 1419 0.18 0.00 0.29 0.000
5:01am 33 1 2 44 100 73.5 72.7 29.47 72.7 418 0 1419 0.18 0.00 0.29 0.000
5:02am 33 0 2 44 100 73.5 72.6 29.47 72.6 417 0 1412 0.08 0.00 0.29 0.000
5:03am 33 0 2 44 100 73.5 72.6 29.47 72.6 418 0 1413 0.07 0.00 0.29 0.000
5:04am 39 1 2 44 100 73.5 72.6 29.47 72.6 417 0 1412 0.07 0.00 0.29 0.000
5:05am 17 2 7 44 100 73.5 72.6 29.47 72.6 417 0 1412 0.07 0.00 0.29 0.000
5:06am 17 1 2 44 100 73.5 72.6 29.48 72.6 414 0 1408 0.07 0.00 0.29 0.000
5:07am 16 0 2 44 100 73.5 72.5 29.48 72.5 411 0 1399 -0.03 0.00 0.29 0.000
5:08am 23 3 3 44 100 73.5 72.5 29.48 72.5 408 0 1395 -0.03 0.00 0.29 0.000
5:09am 89 2 5 44 100 73.5 72.5 29.48 72.5 407 0 1394 -0.03 0.00 0.29 0.000
5:10am 89 1 5 44 100 73.5 72.5 29.48 72.5 409 0 1396 -0.03 0.00 0.29 0.000
5:11am 89 3 3 44 100 73.5 72.5 29.48 72.5 412 0 1400 -0.03 0.02 0.31 0.000
5:12am 89 3 4 44 100 73.5 72.4 29.47 72.4 418 0 1400 -0.13 0.04 0.33 1.600
5:13am 89 1 4 44 100 73.5 72.4 29.47 72.4 419 0 1402 -0.13 0.07 0.36 2.040
5:14am 89 3 4 44 100 73.5 72.4 29.47 72.4 420 0 1404 -0.13 0.10 0.39 1.570
5:15am 89 0 4 44 100 73.5 72.4 29.47 72.4 420 0 1404 -0.12 0.11 0.40 0.710
5:16am 89 0 1 44 100 73.5 72.4 29.47 72.4 419 0 1402 -0.12 0.12 0.41 0.530
5:17am 89 0 1 44 100 73.5 72.4 29.47 72.4 418 0 1400 -0.12 0.12 0.41 0.340
5:18am 89 1 1 44 100 73.5 72.4 29.47 72.4 417 0 1399 -0.12 0.12 0.41 0.220
5:19am 89 2 2 44 100 73.5 72.4 29.47 72.4 416 0 1398 -0.12 0.12 0.41 0.160
5:20am 89 3 3 44 100 73.5 72.4 29.48 72.4 414 0 1396 -0.12 0.13 0.42 0.140
5:21am 89 1 3 44 100 73.5 72.4 29.48 72.4 412 0 1393 -0.11 0.13 0.42 0.140
5:22am 89 2 3 44 100 73.5 72.4 29.48 72.4 409 0 1390 -0.11 0.13 0.42 0.140
5:23am 89 1 3 44 100 73.5 72.4 29.48 72.4 408 0 1389 -0.11 0.13 0.42 0.140
5:24am 89 1 3 44 100 73.5 72.3 29.48 72.3 406 0 1380 -0.21 0.13 0.42 0.140
5:25am 89 1 3 44 100 73.5 72.4 29.48 72.4 406 0 1386 -0.10 0.13 0.42 0.110
5:26am 89 0 2 44 100 73.5 72.4 29.48 72.4 406 0 1386 -0.10 0.13 0.42 0.090
5:27am 89 0 2 44 100 73.5 72.3 29.48 72.3 406 0 1379 -0.20 0.13 0.42 0.080
5:28am 89 0 2 44 100 73.5 72.3 29.48 72.3 406 0 1379 -0.19 0.13 0.42 0.070
5:29am 89 0 2 44 100 73.5 72.3 29.48 72.3 406 0 1379 -0.19 0.14 0.43 0.070
5:30am 89 0 2 44 100 73.5 72.4 29.48 72.4 406 0 1386 -0.09 0.15 0.44 0.520
5:31am 89 2 2 44 100 73.6 72.3 29.48 72.3 406 0 1379 -0.19 0.15 0.44 0.340
5:32am 89 2 3 44 100 73.6 72.4 29.48 72.4 406 0 1387 -0.08 0.16 0.45 0.310
5:33am 89 5 5 44 100 73.6 72.3 29.48 72.3 406 0 1380 -0.18 0.16 0.45 0.310
5:34am 89 1 5 44 100 73.6 72.3 29.48 72.3 406 0 1380 -0.18 0.16 0.45 0.220
5:35am 89 3 5 44 100 73.6 72.3 29.48 72.3 406 0 1380 -0.18 0.17 0.46 0.200
5:36am 89 2 3 44 100 73.6 72.3 29.48 72.3 407 0 1381 -0.17 0.17 0.46 0.200
5:37am 89 2 3 44 100 73.6 72.3 29.48 72.3 408 0 1383 -0.17 0.17 0.46 0.200
5:38am 89 1 3 44 100 73.6 72.2 29.48 72.2 408 0 1376 -0.27 0.17 0.46 0.160
5:39am 89 4 4 44 100 73.6 72.3 29.48 72.3 408 0 1383 -0.16 0.17 0.46 0.120
5:40am 89 1 4 44 100 73.6 72.2 29.48 72.2 406 0 1374 -0.26 0.18 0.47 0.120
5:41am 89 1 2 44 100 73.6 72.2 29.48 72.2 406 0 1373 -0.26 0.18 0.47 0.120
5:42am 89 0 2 44 100 73.6 72.2 29.48 72.2 406 0 1373 -0.25 0.18 0.47 0.120
5:43am 89 1 2 44 100 73.6 72.2 29.48 72.2 406 0 1374 -0.25 0.19 0.48 0.180
5:44am 89 3 3 44 100 73.6 72.2 29.48 72.2 408 0 1376 -0.24 0.19 0.48 0.180
5:45am 89 2 4 44 100 73.6 72.2 29.48 72.2 414 0 1383 -0.24 0.19 0.48 0.240
5:46am 89 2 4 44 100 73.6 72.2 29.47 72.2 415 0 1384 -0.24 0.20 0.49 0.240
5:47am 161 4 6 44 100 73.6 72.1 29.47 72.1 417 0 1380 -0.33 0.20 0.49 0.240
5:48am 161 1 6 44 100 73.6 72.1 29.47 72.1 417 0 1380 -0.33 0.20 0.49 0.190
5:49am 161 0 6 44 100 73.6 72.1 29.48 72.1 413 0 1375 -0.32 0.20 0.49 0.150
5:50am 161 0 6 44 100 73.6 72.1 29.48 72.1 410 0 1372 -0.32 0.20 0.49 0.120
5:51am 161 0 0 44 100 73.6 72.0 29.48 72.0 409 0 1365 -0.41 0.20 0.49 0.100
5:52am 161 0 0 44 100 73.6 72.0 29.48 72.0 408 0 1363 -0.40 0.20 0.49 0.080
5:53am 89 3 4 44 100 73.5 72.0 29.48 72.0 408 0 1363 -0.40 0.20 0.49 0.070
5:54am 89 2 4 44 100 73.5 71.9 29.48 71.9 407 0 1356 -0.49 0.20 0.49 0.070
5:55am 49 2 4 44 100 73.5 71.9 29.48 71.9 406 0 1355 -0.48 0.20 0.49 0.060
5:56am 49 1 2 44 100 73.5 71.8 29.48 71.8 406 0 1347 -0.57 0.20 0.49 0.050
5:57am 85 1 4 44 100 73.5 71.8 29.48 71.8 406 0 1347 -0.56 0.20 0.49 0.050
5:58am 85 1 4 44 100 73.5 71.8 29.48 71.8 406 0 1347 -0.56 0.20 0.49 0.050
5:59am 85 2 4 44 100 73.5 71.8 29.48 71.8 406 0 1347 -0.55 0.20 0.49 0.040
6:00am 85 0 4 44 100 73.5 71.7 29.48 71.7 406 0 1342 -0.64 0.20 0.49 0.040
6:01am 85 0 0 44 100 73.5 71.7 29.48 71.7 407 0 1343 -0.62 0.20 0.49 0.040
6:02am 85 2 2 44 100 73.5 71.7 29.48 71.7 408 0 1344 -0.61 0.20 0.49 0.000
6:03am 85 2 3 44 100 73.5 71.7 29.48 71.7 408 0 1344 -0.60 0.20 0.49 0.000
6:04am 85 1 3 44 100 73.5 71.6 29.48 71.6 408 0 1338 -0.69 0.21 0.50 0.000
6:05am 85 0 3 44 100 73.5 71.6 29.48 71.6 407 0 1337 -0.68 0.21 0.50 0.000
6:06am 102 2 3 44 100 73.5 71.6 29.48 71.6 407 0 1337 -0.67 0.21 0.50 0.000
6:07am 102 2 3 44 100 73.5 71.6 29.48 71.6 408 0 1338 -0.66 0.21 0.50 0.000
6:08am 64 2 5 44 100 73.5 71.5 29.48 71.5 409 0 1333 -0.75 0.21 0.50 0.000
6:09am 74 1 5 44 100 73.5 71.5 29.48 71.5 410 0 1334 -0.73 0.21 0.50 0.000
6:10am 73 1 5 44 100 73.5 71.4 29.48 71.4 409 0 1326 -0.82 0.21 0.50 0.000
6:11am 69 3 4 44 100 73.5 71.5 29.48 71.5 412 0 1336 -0.71 0.21 0.50 0.000
6:12am 73 2 4 44 100 73.5 71.4 29.48 71.4 412 0 1330 -0.80 0.21 0.50 0.000
6:13am 71 2 4 44 100 73.5 71.3 29.48 71.3 414 0 1326 -0.88 0.21 0.50 0.000
6:14am 71 0 4 44 100 73.5 71.3 29.48 71.3 413 0 1325 -0.87 0.21 0.50 0.000
6:15am 71 1 4 44 100 73.5 71.3 29.48 71.3 411 0 1322 -0.86 0.21 0.50 0.000
6:16am 71 1 2 44 100 73.5 71.3 29.48 71.3 410 0 1321 -0.84 0.21 0.50 0.000
6:17am 71 0 2 44 100 73.5 71.3 29.48 71.3 411 0 1322 -0.83 0.21 0.50 0.000
6:18am 71 0 2 44 100 73.5 71.3 29.48 71.3 413 0 1325 -0.81 0.21 0.50 0.000
6:19am 71 0 2 44 100 73.5 71.3 29.47 71.3 415 0 1327 -0.80 0.21 0.50 0.000
6:20am 77 2 3 44 100 73.5 71.3 29.47 71.3 415 0 1327 -0.79 0.21 0.50 0.000
6:21am 77 0 2 44 100 73.5 71.2 29.47 71.2 416 0 1322 -0.87 0.21 0.50 0.000
6:22am 77 0 2 44 100 73.5 71.2 29.47 71.2 415 0 1320 -0.86 0.21 0.50 0.000
6:23am 77 1 2 44 100 73.5 71.2 29.48 71.2 414 0 1319 -0.84 0.21 0.50 0.000
6:24am 71 5 5 44 100 73.5 71.2 29.48 71.2 412 0 1317 -0.83 0.21 0.50 0.000
6:25am 71 0 5 44 100 73.6 71.2 29.48 71.2 409 0 1314 -0.82 0.21 0.50 0.000
6:26am 75 3 3 44 100 73.6 71.2 29.48 71.2 407 0 1311 -0.80 0.21 0.50 0.000
6:27am 75 2 3 44 100 73.6 71.2 29.48 71.2 406 0 1310 -0.79 0.21 0.50 0.000
6:28am 74 3 3 44 100 73.6 71.2 29.48 71.2 406 0 1310 -0.78 0.21 0.50 0.000
6:29am 74 2 3 44 100 73.6 71.2 29.48 71.2 407 0 1311 -0.76 0.21 0.50 0.000
6:30am 74 2 3 44 100 73.6 71.1 29.48 71.1 407 0 1305 -0.85 0.21 0.50 0.000
6:31am 75 3 3 44 100 73.6 71.1 29.48 71.1 408 0 1306 -0.84 0.21 0.50 0.000
6:32am 75 1 3 44 100 73.6 71.1 29.48 71.1 410 0 1308 -0.82 0.21 0.50 0.000
6:33am 75 1 3 44 100 73.6 71.1 29.48 71.1 413 0 1312 -0.81 0.21 0.50 0.000
6:34am 75 2 3 44 100 73.6 71.1 29.48 71.1 414 0 1313 -0.79 0.21 0.50 0.000
6:35am 75 1 3 44 100 73.6 71.1 29.47 71.1 415 0 1314 -0.78 0.21 0.50 0.000
6:36am 75 0 1 44 100 73.6 71.1 29.47 71.1 415 0 1314 -0.77 0.21 0.50 0.000
6:37am 75 0 1 44 100 73.6 71.1 29.48 71.1 414 0 1313 -0.76 0.21 0.50 0.000
6:38am 76 2 2 44 100 73.6 71.0 29.48 71.0 411 0 1303 -0.84 0.21 0.50 0.000
6:39am 75 3 3 44 100 73.6 71.1 29.48 71.1 410 0 1308 -0.73 0.21 0.50 0.000
6:40am 75 2 3 44 100 73.6 71.1 29.48 71.1 410 0 1308 -0.72 0.21 0.50 0.000
6:41am 75 2 2 44 100 73.6 71.0 29.48 71.0 410 0 1302 -0.80 0.21 0.50 0.000
6:42am 76 1 2 44 100 73.6 71.0 29.48 71.0 410 0 1302 -0.79 0.21 0.50 0.000
6:43am 66 0 3 44 100 73.6 71.0 29.48 71.0 408 0 1300 -0.78 0.21 0.50 0.000
6:44am 66 1 3 44 100 73.6 71.0 29.48 71.0 406 0 1298 -0.77 0.21 0.50 0.000
6:45am 48 2 3 44 100 73.8 71.0 29.49 71.0 405 0 1295 -0.75 0.21 0.50 0.000
6:46am 48 3 3 44 100 73.8 71.0 29.49 71.0 403 0 1293 -0.74 0.21 0.50 0.000
6:47am 48 2 3 44 100 73.8 71.0 29.49 71.0 397 0 1286 -0.73 0.21 0.50 0.000
6:48am 48 2 3 44 100 73.8 71.0 29.50 71.0 392 0 1279 -0.72 0.21 0.50 0.000
6:49am 25 3 5 44 100 73.8 71.0 29.50 71.0 390 0 1277 -0.70 0.21 0.50 0.000
6:50am 22 2 5 44 100 73.8 71.0 29.50 71.0 389 0 1276 -0.69 0.21 0.50 0.000
6:51am 19 2 3 44 100 73.8 71.0 29.51 71.0 384 0 1269 -0.68 0.21 0.50 0.000
6:52am 2 3 5 44 100 73.8 71.0 29.51 71.0 379 0 1264 -0.67 0.21 0.50 0.000
6:53am 2 0 5 44 100 73.8 71.1 29.52 71.1 376 0 1267 -0.56 0.21 0.50 0.000
6:54am 2 1 5 44 100 73.8 71.1 29.52 71.1 373 0 1263 -0.55 0.25 0.54 2.060
6:55am 232 0 5 44 100 73.8 71.1 29.52 71.1 375 0 1266 -0.54 0.27 0.56 1.690
6:56am 232 3 3 44 100 73.8 71.1 29.51 71.1 378 0 1269 -0.53 0.29 0.58 1.540
6:57am 213 2 4 44 100 73.8 71.1 29.51 71.1 385 0 1278 -0.52 0.32 0.61 2.620
6:58am 185 3 5 44 100 73.8 71.0 29.50 71.0 391 0 1278 -0.61 0.38 0.67 3.950
6:59am 162 3 7 44 100 73.8 71.0 29.50 71.0 391 0 1278 -0.60 0.43 0.72 2.460
7:00am 196 2 7 44 100 73.8 71.0 29.49 71.0 398 0 1287 -0.59 0.46 0.75 2.700
7:01am 196 1 3 44 100 73.8 71.0 29.49 71.0 398 0 1287 -0.58 0.50 0.79 2.460
7:02am 196 0 3 44 100 73.8 70.9 29.49 70.9 402 0 1285 -0.67 0.52 0.81 1.150
7:03am 196 0 3 44 100 73.8 70.9 29.49 70.9 404 0 1288 -0.66 0.53 0.82 0.990
7:04am 196 0 3 46 100 73.8 70.9 29.49 70.9 405 0 1289 -0.65 0.54 0.83 0.570
7:05am 196 1 3 44 100 74.0 70.9 29.49 70.9 405 0 1289 -0.64 0.55 0.84 0.520
7:06am 196 0 1 44 100 74.0 70.8 29.48 70.8 406 0 1284 -0.73 0.55 0.84 0.270
7:07am 196 2 2 44 100 74.0 70.8 29.48 70.8 406 0 1285 -0.72 0.55 0.84 0.190
7:08am 196 1 2 44 100 74.0 70.8 29.48 70.8 408 0 1287 -0.70 0.55 0.84 0.140
7:09am 196 1 2 44 100 74.0 70.8 29.48 70.8 407 0 1286 -0.69 0.55 0.84 0.120
7:10am 196 2 2 44 100 74.0 70.8 29.48 70.8 406 0 1284 -0.68 0.55 0.84 0.100
7:11am 196 2 2 44 100 74.0 70.8 29.49 70.8 405 0 1282 -0.67 0.56 0.85 0.100
7:12am 196 1 2 44 100 74.0 70.8 29.49 70.8 403 0 1280 -0.66 0.56 0.85 0.100
7:13am 196 0 2 44 100 74.0 70.8 29.49 70.8 402 0 1279 -0.65 0.56 0.85 0.100
7:14am 196 0 2 44 100 74.0 70.8 29.49 70.8 401 0 1278 -0.64 0.56 0.85 0.100
7:15am 196 0 2 44 100 74.0 70.8 29.49 70.8 399 0 1276 -0.63 0.56 0.85 0.100
7:16am 196 0 0 44 100 74.0 70.8 29.49 70.8 399 0 1276 -0.62 0.56 0.85 0.100
7:17am 196 1 2 44 100 74.0 70.8 29.49 70.8 397 0 1273 -0.61 0.56 0.85 0.090
7:18am 196 0 2 44 100 74.0 70.8 29.49 70.8 397 0 1273 -0.60 0.56 0.85 0.080
7:19am 196 0 2 44 100 74.0 70.8 29.49 70.8 400 0 1277 -0.59 0.56 0.85 0.070
7:20am 196 1 2 44 100 74.2 70.8 29.49 70.8 402 0 1279 -0.58 0.56 0.85 0.060
7:21am 196 1 1 44 100 74.2 70.8 29.49 70.8 402 0 1279 -0.57 0.56 0.85 0.050
7:22am 196 0 1 44 100 74.2 70.8 29.49 70.8 402 0 1279 -0.56 0.56 0.85 0.050
7:23am 196 0 1 44 100 74.2 70.8 29.49 70.8 400 0 1277 -0.55 0.56 0.85 0.050
7:24am 196 1 1 44 100 74.2 70.8 29.49 70.8 399 0 1276 -0.54 0.56 0.85 0.040
7:25am 196 1 1 44 100 74.2 70.8 29.49 70.8 398 0 1275 -0.53 0.56 0.85 0.040
7:26am 196 1 1 44 100 74.2 70.8 29.49 70.8 399 0 1276 -0.52 0.56 0.85 0.040
7:27am 196 0 1 44 100 74.2 70.8 29.49 70.8 400 0 1277 -0.51 0.56 0.85 0.000
7:28am 196 1 1 44 100 74.2 70.8 29.49 70.8 401 0 1278 -0.51 0.56 0.85 0.000
7:29am 196 1 1 44 100 74.2 70.8 29.49 70.8 401 0 1278 -0.50 0.56 0.85 0.000
7:30am 196 1 2 44 100 74.2 70.7 29.49 70.7 401 0 1272 -0.59 0.56 0.85 0.000
7:31am 196 1 2 44 100 74.2 70.7 29.49 70.7 400 0 1270 -0.58 0.56 0.85 0.000
7:32am 196 1 2 44 100 74.2 70.7 29.49 70.7 398 0 1268 -0.57 0.56 0.85 0.000
7:33am 196 1 2 44 100 74.2 70.7 29.49 70.7 396 0 1266 -0.56 0.56 0.85 0.000
7:34am 196 1 2 44 100 74.2 70.7 29.49 70.7 397 0 1267 -0.55 0.56 0.85 0.000
7:35am 196 0 2 44 100 74.2 70.7 29.49 70.7 398 0 1268 -0.54 0.56 0.85 0.000
7:36am 196 1 1 44 100 74.3 70.7 29.49 70.7 400 0 1270 -0.53 0.56 0.85 0.000
7:37am 196 1 2 44 100 74.3 70.7 29.49 70.7 402 0 1273 -0.53 0.56 0.85 0.000
7:38am 196 3 3 44 100 74.3 70.7 29.49 70.7 404 0 1275 -0.52 0.56 0.85 0.000
7:39am 196 1 3 44 100 74.3 70.7 29.48 70.7 406 0 1277 -0.51 0.56 0.85 0.000
7:40am 196 2 3 44 100 74.3 70.7 29.48 70.7 406 0 1277 -0.50 0.56 0.85 0.000
7:41am 196 2 2 44 100 74.3 70.7 29.48 70.7 406 0 1277 -0.49 0.56 0.85 0.000
7:42am 196 1 3 44 100 74.3 70.7 29.48 70.7 406 0 1277 -0.48 0.56 0.85 0.000
7:43am 196 1 3 44 100 74.3 70.7 29.48 70.7 406 0 1277 -0.48 0.56 0.85 0.000
7:44am 196 1 3 44 100 74.3 70.7 29.48 70.7 406 0 1277 -0.47 0.56 0.85 0.000
7:45am 196 1 3 44 100 74.3 70.7 29.48 70.7 406 0 1277 -0.46 0.56 0.85 0.000
7:46am 196 0 2 45 100 74.3 70.7 29.48 70.7 406 0 1278 -0.45 0.56 0.85 0.000
7:47am 196 2 2 44 100 74.3 70.7 29.48 70.7 406 0 1278 -0.45 0.56 0.85 0.000
7:48am 196 1 2 44 100 74.3 70.7 29.48 70.7 407 0 1279 -0.44 0.56 0.85 0.000
7:49am 170 2 5 44 100 74.3 70.7 29.48 70.7 410 0 1283 -0.43 0.56 0.85 0.000
7:50am 170 2 5 44 100 74.3 70.7 29.47 70.7 415 0 1289 -0.42 0.56 0.85 0.000
7:51am 172 3 5 44 100 74.5 70.7 29.47 70.7 419 0 1294 -0.42 0.56 0.85 0.000
7:52am 172 2 5 44 100 74.5 70.7 29.47 70.7 420 0 1295 -0.41 0.56 0.85 0.000
7:53am 172 2 5 44 100 74.5 70.7 29.47 70.7 421 0 1296 -0.40 0.56 0.85 0.000
7:54am 208 3 5 44 100 74.5 70.7 29.47 70.7 420 0 1295 -0.40 0.56 0.85 0.000
7:55am 208 1 5 44 100 74.5 70.7 29.47 70.7 419 0 1294 -0.39 0.56 0.85 0.000
7:56am 208 1 2 44 100 74.5 70.8 29.47 70.8 418 0 1299 -0.28 0.56 0.85 0.000
7:57am 208 1 2 44 100 74.5 70.7 29.47 70.7 418 0 1292 -0.38 0.56 0.85 0.000
7:58am 208 1 2 44 100 74.5 70.7 29.47 70.7 418 0 1292 -0.37 0.56 0.85 0.000
7:59am 182 3 5 44 100 74.5 70.7 29.47 70.7 419 0 1294 -0.37 0.56 0.85 0.000
8:00am 182 4 5 44 100 74.5 70.8 29.47 70.8 420 0 1302 -0.26 0.56 0.85 0.000
8:01am 182 1 4 44 100 74.5 70.8 29.47 70.8 423 0 1305 -0.26 0.56 0.85 0.000
8:02am 182 1 4 44 100 74.5 70.8 29.46 70.8 424 0 1306 -0.25 0.56 0.85 0.000
8:03am 214 3 4 44 100 74.5 70.8 29.47 70.8 421 0 1303 -0.25 0.56 0.85 0.000
8:04am 156 3 6 45 100 74.5 70.8 29.47 70.8 419 0 1301 -0.24 0.56 0.85 0.000
8:05am 227 3 6 45 100 74.5 70.8 29.47 70.8 419 0 1301 -0.24 0.56 0.85 0.000
8:06am 193 4 5 45 100 74.5 70.8 29.47 70.8 419 0 1301 -0.23 0.56 0.85 0.000
8:07am 188 2 5 44 100 74.7 70.8 29.47 70.8 421 0 1303 -0.23 0.56 0.85 0.000
8:08am 188 1 5 44 100 74.7 70.9 29.46 70.9 425 0 1314 -0.13 0.56 0.85 0.000
8:09am 188 2 5 44 100 74.7 70.9 29.46 70.9 428 0 1317 -0.12 0.56 0.85 0.000
8:10am 168 2 5 45 100 74.7 70.9 29.46 70.9 428 0 1317 -0.12 0.56 0.85 0.000
8:11am 158 5 5 44 100 74.7 70.9 29.45 70.9 434 0 1325 -0.12 0.56 0.85 0.000
8:12am 181 4 6 44 100 74.7 70.9 29.45 70.9 441 0 1333 -0.12 0.56 0.85 0.000
8:13am 158 4 6 44 100 74.7 70.9 29.44 70.9 447 0 1341 -0.12 0.56 0.85 0.000
8:14am 216 1 6 44 100 74.7 71.0 29.44 71.0 447 0 1347 -0.01 0.56 0.85 0.000
8:15am 216 1 6 44 100 74.7 70.9 29.44 70.9 444 0 1337 -0.11 0.56 0.85 0.000
8:16am 222 4 4 45 100 74.7 70.9 29.44 70.9 444 0 1337 -0.11 0.56 0.85 0.000
8:17am 189 4 5 45 100 74.7 70.9 29.44 70.9 447 0 1341 -0.11 0.56 0.85 0.000
8:18am 145 3 7 44 100 74.7 70.9 29.44 70.9 451 0 1345 -0.11 0.56 0.85 0.000
8:19am 100 1 7 45 100 74.7 70.9 29.42 70.9 463 0 1360 -0.10 0.56 0.85 0.000
8:20am 128 4 10 45 100 74.7 70.9 29.42 70.9 468 0 1367 -0.10 0.56 0.85 0.000
8:21am 83 8 8 45 100 74.7 71.0 29.41 71.0 477 0 1384 -0.00 0.56 0.85 0.000
8:22am 95 2 8 45 100 74.7 71.0 29.40 71.0 482 0 1390 -0.00 0.56 0.85 0.000
8:23am 255 3 8 45 100 74.9 70.9 29.40 70.9 480 0 1382 -0.10 0.56 0.85 0.000
8:24am 186 2 8 45 100 74.9 71.0 29.41 71.0 478 0 1386 -0.00 0.56 0.85 0.000
8:25am 193 4 8 44 100 74.9 71.0 29.41 71.0 476 0 1383 -0.00 0.56 0.85 0.000
8:26am 254 4 6 45 100 74.9 71.0 29.42 71.0 470 0 1375 -0.00 0.56 0.85 0.000
8:27am 164 7 7 45 100 74.9 71.1 29.42 71.1 464 0 1375 0.10 0.56 0.85 0.000
8:28am 305 2 7 45 100 74.9 71.0 29.42 71.0 464 0 1368 -0.00 0.56 0.85 0.000
8:29am 242 3 7 45 100 74.9 71.1 29.42 71.1 463 0 1373 0.10 0.56 0.85 0.000
8:30am 39 1 7 45 100 74.9 71.0 29.43 71.0 460 0 1363 -0.00 0.56 0.85 0.000
8:31am 35 1 2 45 100 74.9 71.1 29.44 71.1 450 0 1357 0.10 0.56 0.85 0.000
8:32am 300 4 6 45 100 74.9 71.2 29.44 71.2 448 0 1361 0.19 0.56 0.85 0.000
8:33am 216 1 6 45 100 74.9 71.2 29.44 71.2 444 0 1357 0.19 0.56 0.85 0.000
8:34am 237 5 6 45 100 74.9 71.2 29.45 71.2 439 0 1350 0.19 0.56 0.85 0.000
8:35am 230 2 6 45 100 74.9 71.2 29.45 71.2 436 0 1346 0.19 0.56 0.85 0.000
8:36am 210 5 9 45 100 74.9 71.3 29.45 71.3 435 0 1352 0.28 0.56 0.85 0.000
8:37am 187 1 9 45 100 74.9 71.4 29.45 71.4 434 0 1357 0.38 0.56 0.85 0.000
8:38am 239 3 9 45 100 74.9 71.4 29.45 71.4 434 0 1357 0.37 0.56 0.85 0.000
8:39am 175 3 9 45 100 74.9 71.4 29.45 71.4 433 0 1356 0.36 0.56 0.85 0.000
8:40am 175 1 9 45 100 74.9 71.5 29.46 71.5 432 0 1361 0.46 0.56 0.85 0.000
8:41am 175 1 1 45 100 75.0 71.5 29.46 71.5 432 0 1361 0.45 0.56 0.85 0.000
8:42am 250 1 2 45 100 75.0 71.6 29.45 71.6 433 0 1368 0.54 0.56 0.85 0.000
8:43am 236 4 4 45 100 75.0 71.6 29.46 71.6 431 0 1366 0.53 0.56 0.85 0.000
8:44am 243 4 8 45 100 75.0 71.7 29.46 71.7 430 0 1371 0.62 0.56 0.85 0.000
8:45am 270 4 8 45 100 75.0 71.7 29.46 71.7 432 0 1374 0.61 0.56 0.85 0.000
8:46am 178 3 4 45 100 75.0 71.7 29.45 71.7 434 0 1376 0.60 0.56 0.85 0.000
8:47am 210 4 6 45 100 75.0 71.7 29.45 71.7 435 0 1377 0.59 0.56 0.85 0.000
8:48am 218 4 6 45 100 75.0 71.7 29.45 71.7 435 0 1377 0.58 0.56 0.85 0.000
8:49am 220 4 6 45 100 75.0 71.8 29.45 71.8 435 0 1383 0.67 0.56 0.85 0.000
8:50am 164 1 6 45 100 75.0 71.8 29.45 71.8 436 0 1385 0.66 0.56 0.85 0.000
8:51am 165 1 5 45 100 75.0 71.9 29.45 71.9 436 0 1391 0.75 0.56 0.85 0.000
8:52am 231 4 5 45 100 75.0 71.9 29.45 71.9 436 0 1391 0.73 0.56 0.85 0.000
8:53am 254 2 7 45 100 75.0 71.9 29.45 71.9 436 0 1391 0.72 0.56 0.85 0.000
8:54am 181 4 7 45 100 75.0 71.9 29.45 71.9 437 0 1392 0.71 0.56 0.85 0.000
8:55am 224 3 7 45 100 75.0 71.9 29.45 71.9 437 0 1392 0.70 0.56 0.85 0.000
8:56am 241 2 4 45 100 75.0 71.9 29.45 71.9 437 0 1392 0.69 0.56 0.85 0.000
8:57am 188 4 4 45 100 75.0 72.0 29.45 72.0 437 0 1398 0.78 0.56 0.85 0.000
8:58am 196 3 5 45 100 75.0 71.9 29.45 71.9 437 0 1392 0.66 0.56 0.85 0.000
8:59am 137 2 5 45 100 75.0 72.0 29.45 72.0 438 0 1400 0.75 0.56 0.85 0.000
9:00am 347 2 5 45 100 75.2 72.0 29.45 72.0 439 0 1401 0.74 0.56 0.85 0.000
9:01am 201 4 5 45 100 75.2 72.1 29.45 72.1 440 0 1408 0.83 0.56 0.85 0.000
9:02am 200 4 5 45 100 75.2 72.1 29.45 72.1 441 0 1410 0.81 0.56 0.85 0.000
9:03am 185 4 5 45 100 75.2 72.1 29.45 72.1 441 0 1410 0.80 0.56 0.85 0.000
9:04am 210 3 5 45 100 75.2 72.1 29.45 72.1 441 0 1410 0.79 0.56 0.85 0.000
9:05am 208 5 6 45 100 75.2 72.1 29.45 72.1 441 0 1410 0.77 0.56 0.85 0.000
9:06am 333 2 5 45 100 75.2 72.2 29.44 72.2 443 0 1419 0.86 0.56 0.85 0.000
9:07am 130 4 5 45 100 75.2 72.2 29.44 72.2 446 0 1422 0.84 0.56 0.85 0.000
9:08am 152 3 5 45 100 75.2 72.2 29.44 72.2 446 0 1422 0.83 0.56 0.85 0.000
9:09am 152 4 8 45 100 75.2 72.3 29.44 72.3 448 0 1431 0.92 0.56 0.85 0.000
9:10am 137 3 8 45 100 75.2 72.2 29.44 72.2 446 0 1422 0.80 0.56 0.85 0.000
9:11am 197 3 6 45 100 75.2 72.2 29.44 72.2 446 0 1422 0.79 0.56 0.85 0.000
9:12am 193 6 6 45 100 75.2 72.3 29.44 72.3 446 0 1429 0.87 0.56 0.85 0.000
9:13am 160 3 7 45 100 75.2 72.3 29.44 72.3 448 0 1431 0.86 0.56 0.85 0.000
9:14am 150 1 7 45 100 75.2 72.3 29.44 72.3 449 0 1432 0.85 0.56 0.85 0.000
9:15am 151 0 7 45 100 75.2 72.3 29.44 72.3 449 0 1432 0.83 0.56 0.85 0.000
9:16am 152 2 2 45 100 75.4 72.3 29.44 72.3 449 0 1432 0.82 0.56 0.85 0.000
9:17am 242 6 7 45 100 75.4 72.4 29.44 72.4 449 0 1439 0.90 0.56 0.85 0.000
9:18am 226 2 7 45 100 75.4 72.4 29.44 72.4 450 0 1440 0.89 0.56 0.85 0.000
9:19am 226 0 7 45 100 75.4 72.4 29.44 72.4 450 0 1440 0.87 0.56 0.85 0.000
9:20am 226 0 7 45 100 75.4 72.4 29.44 72.4 450 0 1440 0.86 0.56 0.85 0.000
9:21am 226 2 3 46 100 75.4 72.5 29.44 72.5 450 0 1446 0.95 0.56 0.85 0.000
9:22am 226 2 3 45 100 75.4 72.5 29.44 72.5 450 0 1446 0.93 0.56 0.85 0.000
9:23am 226 0 3 45 100 75.4 72.5 29.44 72.5 450 0 1446 0.92 0.56 0.85 0.000
9:24am 291 1 3 45 100 75.4 72.5 29.44 72.5 451 0 1447 0.90 0.56 0.85 0.000
9:25am 291 1 3 45 100 75.4 72.5 29.44 72.5 451 0 1447 0.89 0.56 0.85 0.000
9:26am 253 2 4 45 100 75.4 72.5 29.44 72.5 451 0 1447 0.87 0.56 0.85 0.000
9:27am 233 2 4 45 100 75.4 72.5 29.44 72.5 451 0 1447 0.86 0.56 0.85 0.000
9:28am 233 1 4 45 100 75.4 72.5 29.43 72.5 452 0 1448 0.84 0.56 0.85 0.000
9:29am 238 3 5 45 100 75.4 72.6 29.43 72.6 452 0 1455 0.93 0.56 0.85 0.000
9:30am 189 2 5 45 100 75.4 72.6 29.43 72.6 453 0 1456 0.91 0.56 0.85 0.000
9:31am 216 3 5 45 100 75.4 72.6 29.43 72.6 454 0 1458 0.90 0.56 0.85 0.000
9:32am 216 2 5 45 100 75.4 72.6 29.43 72.6 456 0 1460 0.88 0.56 0.85 0.000
9:33am 173 2 5 45 100 75.4 72.7 29.43 72.7 457 0 1468 0.97 0.56 0.85 0.000
9:34am 173 1 5 45 100 75.4 72.7 29.43 72.7 456 0 1467 0.95 0.56 0.85 0.000
9:35am 259 2 5 45 100 75.4 72.8 29.43 72.8 458 0 1475 1.03 0.56 0.85 0.000
9:36am 259 1 2 45 100 75.6 72.8 29.43 72.8 458 0 1475 1.02 0.56 0.85 0.000
9:37am 256 2 2 45 100 75.6 72.8 29.43 72.8 455 0 1472 1.00 0.56 0.85 0.000
9:38am 270 2 4 45 100 75.6 72.8 29.43 72.8 455 0 1472 0.98 0.56 0.85 0.000
9:39am 270 0 4 45 100 75.6 72.8 29.43 72.8 455 0 1472 0.97 0.56 0.85 0.000
9:40am 142 4 7 45 100 75.6 72.9 29.43 72.9 459 0 1483 1.05 0.56 0.85 0.000
9:41am 154 2 4 45 100 75.6 72.9 29.43 72.9 459 0 1483 1.03 0.56 0.85 0.000
9:42am 154 3 4 45 100 75.6 72.9 29.43 72.9 460 0 1484 1.02 0.56 0.85 0.000
9:43am 156 1 5 45 100 75.6 73.0 29.42 73.0 462 0 1493 1.10 0.56 0.85 0.000
9:44am 211 3 6 45 100 75.6 73.0 29.42 73.0 462 0 1493 1.08 0.56 0.85 0.000
9:45am 172 3 6 45 100 75.6 73.0 29.42 73.0 464 0 1495 1.06 0.56 0.85 0.000
9:46am 179 6 6 45 100 75.6 73.0 29.42 73.0 464 0 1495 1.05 0.56 0.85 0.000
9:47am 174 2 6 45 100 75.6 73.0 29.42 73.0 464 0 1496 1.03 0.56 0.85 0.000
9:48am 175 1 6 45 100 75.6 73.1 29.42 73.1 464 0 1501 1.11 0.56 0.85 0.000
9:49am 310 5 7 45 100 75.6 73.1 29.42 73.1 463 0 1500 1.09 0.56 0.85 0.000
9:50am 218 2 7 45 100 75.6 73.1 29.42 73.1 463 0 1500 1.07 0.56 0.85 0.000
9:51am 141 4 8 45 100 75.6 73.1 29.42 73.1 462 0 1499 1.06 0.56 0.85 0.000
9:52am 211 3 8 45 100 75.6 73.1 29.42 73.1 462 0 1499 1.04 0.56 0.85 0.000
9:53am 163 2 8 45 100 75.7 73.1 29.42 73.1 463 0 1500 1.02 0.56 0.85 0.000
9:54am 198 4 8 45 100 75.7 73.1 29.42 73.1 464 0 1501 1.00 0.56 0.85 0.000
9:55am 193 2 8 45 100 75.7 73.1 29.42 73.1 464 0 1501 0.99 0.56 0.85 0.000
9:56am 232 2 4 45 100 75.7 73.1 29.42 73.1 464 0 1502 0.97 0.56 0.85 0.000
9:57am 258 2 4 45 100 75.7 73.2 29.42 73.2 464 0 1507 1.05 0.56 0.85 0.000
9:58am 205 0 4 45 100 75.7 73.2 29.42 73.2 464 0 1507 1.04 0.56 0.85 0.000
9:59am 179 2 4 45 100 75.7 73.3 29.42 73.3 464 0 1514 1.12 0.56 0.85 0.000
10:00am 212 1 4 45 100 75.7 73.3 29.42 73.3 464 0 1514 1.10 0.56 0.85 0.000
10:01am 212 2 2 45 100 75.7 73.3 29.42 73.3 464 0 1514 1.08 0.56 0.85 0.000
10:02am 212 1 3 45 100 75.7 73.3 29.42 73.3 464 0 1514 1.06 0.56 0.85 0.000
10:03am 300 1 3 45 100 75.7 73.3 29.42 73.3 464 0 1514 1.05 0.56 0.85 0.000
10:04am 184 2 3 45 100 75.7 73.4 29.42 73.4 462 0 1518 1.13 0.56 0.85 0.000
10:05am 225 2 4 45 100 75.7 73.5 29.43 73.5 461 0 1523 1.21 0.56 0.85 0.000
10:06am 156 3 3 45 100 75.7 73.5 29.43 73.5 459 0 1521 1.19 0.56 0.85 0.000
10:07am 159 1 3 45 100 75.7 73.5 29.43 73.5 459 0 1521 1.17 0.56 0.85 0.000
10:08am 159 1 3 45 100 75.7 73.5 29.43 73.5 459 0 1521 1.15 0.56 0.85 0.000
10:09am 219 2 3 45 100 75.7 73.5 29.43 73.5 460 0 1522 1.13 0.56 0.85 0.000
10:10am 247 4 6 45 100 75.7 73.6 29.43 73.6 460 0 1528 1.21 0.56 0.85 0.000
10:11am 244 1 4 45 100 75.7 73.5 29.43 73.5 457 0 1519 1.09 0.56 0.85 0.000
10:12am 190 2 4 45 100 75.9 73.5 29.43 73.5 456 0 1517 1.07 0.56 0.85 0.000
10:13am 193 3 7 45 100 75.9 73.6 29.43 73.6 456 0 1524 1.16 0.56 0.85 0.000
10:14am 204 3 7 45 100 75.9 73.6 29.43 73.6 456 0 1524 1.14 0.56 0.85 0.000
10:15am 204 2 7 45 100 75.9 73.6 29.43 73.6 455 0 1523 1.12 0.56 0.85 0.000
10:16am 232 2 3 45 100 75.9 73.7 29.43 73.7 454 0 1528 1.20 0.56 0.85 0.000
10:17am 243 2 7 45 100 75.9 73.6 29.43 73.6 455 0 1523 1.08 0.56 0.85 0.000
10:18am 224 4 7 45 100 75.9 73.6 29.43 73.6 455 0 1523 1.06 0.56 0.85 0.000
10:19am 229 1 7 45 100 75.9 73.6 29.43 73.6 455 0 1523 1.04 0.56 0.85 0.000
10:20am 260 4 7 45 100 75.9 73.7 29.43 73.7 453 0 1526 1.13 0.56 0.85 0.000
10:21am 201 2 7 45 100 75.9 73.6 29.43 73.6 454 0 1522 1.01 0.56 0.85 0.000
10:22am 201 1 7 45 100 75.9 73.6 29.43 73.6 453 0 1520 0.99 0.56 0.85 0.000
10:23am 138 2 7 45 100 75.9 73.7 29.43 73.7 453 0 1527 1.07 0.56 0.85 0.000
10:24am 139 1 7 45 100 75.9 73.7 29.44 73.7 451 0 1523 1.06 0.56 0.85 0.000
10:25am 139 1 7 45 100 75.9 73.8 29.44 73.8 450 0 1529 1.14 0.56 0.85 0.000
10:26am 139 2 2 45 100 75.9 73.8 29.44 73.8 449 0 1527 1.12 0.56 0.85 0.000
10:27am 152 4 4 45 100 75.9 73.8 29.44 73.8 449 0 1527 1.10 0.56 0.85 0.000
10:28am 209 3 5 45 100 75.9 73.9 29.44 73.9 449 0 1534 1.18 0.56 0.85 0.000
10:29am 203 3 6 45 100 75.9 73.8 29.44 73.8 448 0 1526 1.06 0.56 0.85 0.000
10:30am 281 4 6 45 100 75.9 73.9 29.44 73.9 446 0 1530 1.14 0.56 0.85 0.000
10:31am 225 3 4 45 100 75.9 73.9 29.44 73.9 444 0 1528 1.12 0.56 0.85 0.000
10:32am 239 3 6 45 100 75.9 73.9 29.44 73.9 443 0 1527 1.10 0.56 0.85 0.000
10:33am 238 1 6 45 100 75.9 73.9 29.44 73.9 443 0 1527 1.09 0.56 0.85 0.000
10:34am 238 1 6 45 100 75.9 73.9 29.45 73.9 440 0 1522 1.07 0.56 0.85 0.000
10:35am 238 1 6 45 100 75.9 73.9 29.45 73.9 440 0 1522 1.05 0.56 0.85 0.000
10:36am 238 0 2 45 100 75.9 73.9 29.45 73.9 439 0 1521 1.03 0.56 0.85 0.000
10:37am 238 0 2 45 100 75.7 74.0 29.45 74.0 440 0 1529 1.12 0.56 0.85 0.000
10:38am 238 1 2 45 100 75.7 74.0 29.45 74.0 440 0 1529 1.10 0.56 0.85 0.000
10:39am 206 2 3 45 100 75.7 74.0 29.45 74.0 440 0 1529 1.08 0.56 0.85 0.000
10:40am 206 1 3 45 100 75.7 74.0 29.45 74.0 439 0 1528 1.06 0.56 0.85 0.000
10:41am 206 1 2 45 100 75.7 74.0 29.45 74.0 440 0 1529 1.04 0.56 0.85 0.000
10:42am 264 2 4 45 100 75.7 74.1 29.45 74.1 441 0 1536 1.13 0.56 0.85 0.000
10:43am 189 1 4 45 100 75.7 74.0 29.45 74.0 441 0 1530 1.01 0.56 0.85 0.000
10:44am 189 2 4 45 100 75.7 74.1 29.45 74.1 440 0 1535 1.09 0.56 0.85 0.000
10:45am 291 5 5 45 100 75.7 74.0 29.45 74.0 439 0 1528 0.97 0.56 0.85 0.000
10:46am 337 2 5 45 100 75.7 74.1 29.45 74.1 439 0 1534 1.05 0.56 0.85 0.000
10:47am 337 1 5 45 100 75.7 74.1 29.45 74.1 441 0 1536 1.04 0.56 0.85 0.000
10:48am 187 3 5 45 100 75.7 74.1 29.45 74.1 440 0 1535 1.02 0.56 0.85 0.000
10:49am 187 2 5 45 100 75.7 74.2 29.45 74.2 439 0 1540 1.10 0.56 0.85 0.000
10:50am 265 1 6 45 100 75.7 74.2 29.45 74.2 439 0 1540 1.08 0.56 0.85 0.000
10:51am 255 2 2 45 100 75.7 74.1 29.45 74.1 439 0 1534 0.97 0.56 0.85 0.000
10:52am 255 0 2 45 100 75.7 74.2 29.45 74.2 438 0 1539 1.05 0.56 0.85 0.000
10:53am 255 0 2 45 100 75.7 74.2 29.45 74.2 436 0 1537 1.03 0.56 0.85 0.000
10:54am 256 0 2 45 100 75.7 74.3 29.45 74.3 436 0 1543 1.11 0.56 0.85 0.000
10:55am 256 0 2 45 100 75.7 74.3 29.45 74.3 435 0 1542 1.10 0.56 0.85 0.000
10:56am 256 0 0 45 100 75.7 74.3 29.45 74.3 435 0 1542 1.08 0.56 0.85 0.000
10:57am 256 0 0 45 100 75.7 74.3 29.45 74.3 435 0 1542 1.06 0.56 0.85 0.000
10:58am 256 0 0 45 100 75.7 74.4 29.45 74.4 435 0 1549 1.14 0.56 0.85 0.000
10:59am 15 1 3 45 100 75.7 74.5 29.45 74.5 435 0 1555 1.22 0.56 0.85 0.000
11:00am 15 1 3 45 100 75.7 74.4 29.45 74.4 434 0 1547 1.10 0.56 0.85 0.000
11:01am 310 4 5 45 100 75.7 74.5 29.45 74.5 434 0 1554 1.18 0.56 0.85 0.000
11:02am 340 2 5 45 100 75.7 74.5 29.46 74.5 429 0 1548 1.16 0.56 0.85 0.000
11:03am 340 1 5 45 100 75.7 74.5 29.47 74.5 422 0 1539 1.15 0.56 0.85 0.000
11:04am 340 1 5 45 100 75.7 74.5 29.47 74.5 420 0 1537 1.13 0.56 0.85 0.000
11:05am 340 1 5 45 100 75.7 74.4 29.47 74.4 418 0 1527 1.01 0.56 0.85 0.000
11:06am 341 0 3 45 100 75.7 74.4 29.48 74.4 414 0 1523 0.99 0.56 0.85 0.000
11:07am 341 0 3 45 100 75.7 74.4 29.48 74.4 412 0 1520 0.98 0.56 0.85 0.000
11:08am 340 1 3 45 100 75.7 74.5 29.47 74.5 415 0 1530 1.06 0.56 0.85 0.000
11:09am 340 0 3 45 100 75.7 74.4 29.47 74.4 415 0 1524 0.94 0.56 0.85 0.000
11:10am 337 2 3 45 100 75.7 74.4 29.47 74.4 419 0 1529 0.93 0.56 0.85 0.000
11:11am 248 1 2 45 100 75.7 74.4 29.47 74.4 419 0 1529 0.91 0.56 0.85 0.000
11:12am 248 1 2 45 100 75.7 74.4 29.47 74.4 418 0 1528 0.90 0.56 0.85 0.000
11:13am 248 0 2 45 100 75.7 74.4 29.47 74.4 418 0 1528 0.88 0.56 0.85 0.000
11:14am 248 0 2 45 100 75.7 74.4 29.47 74.4 418 0 1528 0.87 0.56 0.85 0.000
11:15am 248 1 2 45 100 75.7 74.4 29.47 74.4 418 0 1527 0.85 0.56 0.85 0.000
11:16am 248 1 1 45 100 75.7 74.5 29.47 74.5 418 0 1533 0.94 0.56 0.85 0.000
11:17am 248 0 1 45 100 75.7 74.5 29.47 74.5 418 0 1535 0.92 0.56 0.85 0.000
11:18am 248 0 1 45 100 75.7 74.5 29.47 74.5 418 0 1533 0.91 0.56 0.85 0.000
11:19am 252 3 3 45 100 75.7 74.5 29.47 74.5 418 0 1533 0.89 0.56 0.85 0.000
11:20am 252 1 3 45 100 75.7 74.5 29.47 74.5 416 0 1531 0.88 0.56 0.85 0.000
11:21am 252 1 2 45 100 75.9 74.5 29.48 74.5 414 0 1529 0.86 0.56 0.85 0.000
11:22am 220 1 3 45 100 75.7 74.5 29.48 74.5 411 0 1526 0.85 0.56 0.85 0.000
11:23am 220 0 3 45 100 75.7 74.4 29.48 74.4 410 0 1518 0.74 0.56 0.85 0.000
11:24am 220 0 3 45 100 75.7 74.4 29.48 74.4 409 0 1517 0.72 0.56 0.85 0.000
11:25am 220 1 3 45 100 75.7 74.4 29.48 74.4 410 0 1518 0.71 0.56 0.85 0.000
11:26am 310 1 4 45 100 75.7 74.4 29.48 74.4 410 0 1518 0.70 0.56 0.85 0.000
11:27am 335 2 8 45 100 75.7 74.3 29.48 74.3 411 0 1513 0.59 0.56 0.85 0.000
11:28am 87 1 8 45 100 75.7 74.3 29.48 74.3 410 0 1512 0.58 0.56 0.85 0.000
11:29am 87 1 8 45 100 75.7 74.3 29.48 74.3 412 0 1514 0.57 0.56 0.85 0.000
11:30am 87 1 8 45 100 75.9 74.3 29.48 74.3 414 0 1516 0.56 0.56 0.85 0.000
11:31am 181 3 3 45 100 75.9 74.2 29.47 74.2 418 0 1514 0.45 0.56 0.85 0.000
11:32am 247 3 3 45 100 75.9 74.2 29.47 74.2 418 0 1514 0.45 0.56 0.85 0.000
11:33am 288 1 4 45 100 75.9 74.2 29.47 74.2 418 0 1514 0.44 0.56 0.85 0.000
11:34am 288 2 4 45 100 75.9 74.2 29.47 74.2 418 0 1514 0.43 0.56 0.85 0.000
11:35am 288 1 4 45 100 75.9 74.3 29.47 74.3 418 0 1521 0.52 0.56 0.85 0.000
11:36am 354 1 4 45 100 75.9 74.2 29.47 74.2 419 0 1517 0.42 0.56 0.85 0.000
11:37am 354 0 4 45 100 75.9 74.2 29.47 74.2 420 0 1518 0.41 0.56 0.85 0.000
11:38am 354 0 4 45 100 75.9 74.3 29.47 74.3 421 0 1525 0.50 0.56 0.85 0.000
11:39am 354 0 4 45 100 75.9 74.3 29.47 74.3 421 0 1525 0.49 0.56 0.85 0.000
11:40am 354 2 4 45 100 75.9 74.3 29.47 74.3 420 0 1524 0.48 0.56 0.85 0.000
11:41am 354 0 2 45 100 75.9 74.3 29.47 74.3 420 0 1524 0.48 0.56 0.85 0.000
11:42am 354 2 2 45 100 75.9 74.3 29.47 74.3 421 0 1525 0.47 0.56 0.85 0.000
11:43am 295 3 3 45 100 75.9 74.3 29.47 74.3 422 0 1526 0.46 0.56 0.85 0.000
11:44am 348 2 3 45 100 75.9 74.3 29.46 74.3 424 0 1529 0.45 0.56 0.85 0.000
11:45am 348 0 3 45 100 75.9 74.3 29.46 74.3 424 0 1529 0.44 0.56 0.85 0.000
11:46am 348 1 1 45 100 75.9 74.3 29.46 74.3 424 0 1529 0.44 0.56 0.85 0.000
11:47am 348 1 1 45 100 75.9 74.4 29.47 74.4 423 0 1534 0.53 0.56 0.85 0.000
11:48am 348 0 1 45 100 75.9 74.4 29.46 74.4 427 0 1538 0.52 0.56 0.85 0.000
11:49am 336 2 2 45 100 75.9 74.4 29.46 74.4 427 0 1538 0.51 0.56 0.85 0.000
11:50am 231 1 3 47 100 75.9 74.4 29.46 74.4 425 0 1536 0.50 0.56 0.85 0.000
11:51am 231 2 2 45 100 75.9 74.4 29.46 74.4 428 0 1539 0.50 0.56 0.85 0.000
11:52am 231 1 2 45 100 75.9 74.4 29.46 74.4 430 0 1543 0.49 0.56 0.85 0.000
11:53am 231 2 2 45 100 75.9 74.4 29.45 74.4 433 0 1546 0.48 0.56 0.85 0.000
11:54am 189 1 3 45 100 75.9 74.3 29.45 74.3 434 0 1541 0.37 0.56 0.85 0.000
11:55am 154 0 3 45 100 75.9 74.3 29.45 74.3 434 0 1541 0.37 0.56 0.85 0.000
11:56am 189 1 2 45 100 75.9 74.4 29.45 74.4 434 0 1547 0.46 0.56 0.85 0.000
11:57am 189 1 2 45 100 75.9 74.4 29.45 74.4 435 0 1549 0.45 0.56 0.85 0.000
11:58am 189 0 2 45 100 75.9 74.4 29.45 74.4 434 0 1547 0.44 0.56 0.85 0.000
11:59am 189 1 2 45 100 75.9 74.4 29.45 74.4 434 0 1547 0.44 0.56 0.85 0.000
12:00pm 189 2 2 45 100 75.9 74.4 29.45 74.4 434 0 1547 0.43 0.56 0.85 0.000
12:01pm 189 1 2 45 100 75.9 74.4 29.45 74.4 435 0 1549 0.42 0.56 0.85 0.000
12:02pm 189 0 2 45 100 75.9 74.5 29.45 74.5 434 0 1554 0.51 0.56 0.85 0.000
12:03pm 189 2 2 45 100 75.9 74.4 29.45 74.4 434 0 1547 0.41 0.56 0.85 0.000
12:04pm 191 1 2 45 100 75.9 74.5 29.45 74.5 434 0 1554 0.50 0.56 0.85 0.000
12:05pm 191 0 2 45 100 75.9 74.5 29.45 74.5 435 0 1555 0.49 0.56 0.85 0.000
12:06pm 191 0 1 45 100 75.9 74.5 29.45 74.5 435 0 1555 0.49 0.56 0.85 0.000
12:07pm 191 0 1 45 100 75.9 74.5 29.45 74.5 435 0 1555 0.48 0.56 0.85 0.000
12:08pm 191 1 2 45 100 75.9 74.5 29.45 74.5 436 0 1556 0.47 0.56 0.85 0.000
12:09pm 191 1 2 45 100 75.9 74.5 29.45 74.5 438 0 1558 0.46 0.56 0.85 0.000
12:10pm 191 0 2 45 100 75.7 74.5 29.45 74.5 439 0 1559 0.45 0.56 0.85 0.000
12:11pm 191 0 1 45 100 75.7 74.5 29.45 74.5 441 0 1563 0.45 0.56 0.85 0.000
12:12pm 191 1 1 45 100 75.7 74.5 29.44 74.5 443 0 1565 0.44 0.56 0.85 0.000
12:13pm 191 1 2 45 100 75.7 74.5 29.44 74.5 446 0 1568 0.43 0.57 0.86 0.000
12:14pm 191 0 2 45 100 75.7 74.5 29.44 74.5 449 0 1572 0.43 0.57 0.86 0.000
12:15pm 191 1 3 45 100 75.7 74.5 29.44 74.5 450 0 1573 0.42 0.57 0.86 0.000
12:16pm 191 2 2 45 100 75.7 74.5 29.43 74.5 454 0 1579 0.41 0.57 0.86 0.000
12:17pm 191 0 3 45 100 75.7 74.5 29.43 74.5 459 0 1584 0.41 0.57 0.86 0.000
12:18pm 191 1 3 45 100 75.7 74.5 29.42 74.5 462 0 1588 0.40 0.57 0.86 0.000
12:19pm 191 1 3 45 100 75.7 74.6 29.42 74.6 463 0 1595 0.49 0.57 0.86 0.000
12:20pm 191 1 3 45 100 75.7 74.6 29.42 74.6 463 0 1595 0.48 0.57 0.86 0.000
12:21pm 191 1 2 45 100 75.7 74.6 29.42 74.6 464 0 1596 0.48 0.57 0.86 0.000
12:22pm 216 1 3 45 100 75.7 74.6 29.42 74.6 464 0 1596 0.47 0.57 0.86 0.000
12:23pm 213 1 3 45 100 75.7 74.6 29.42 74.6 464 0 1596 0.46 0.57 0.86 0.000
12:24pm 210 3 3 45 100 75.7 74.7 29.42 74.7 465 0 1605 0.55 0.57 0.86 0.000
12:25pm 141 3 6 45 100 75.7 74.6 29.41 74.6 472 0 1606 0.44 0.57 0.86 0.000
12:26pm 159 5 5 45 100 75.7 74.5 29.41 74.5 478 0 1608 0.34 0.57 0.86 0.000
12:27pm 159 1 5 45 100 75.7 74.5 29.41 74.5 478 0 1608 0.33 0.57 0.86 0.000
12:28pm 159 1 5 45 100 75.7 74.5 29.41 74.5 478 0 1608 0.33 0.57 0.86 0.000
12:29pm 159 2 5 45 100 75.7 74.5 29.41 74.5 476 0 1606 0.32 0.57 0.86 0.000
12:30pm 160 2 5 45 100 75.7 74.5 29.41 74.5 474 0 1602 0.32 0.57 0.86 0.000
12:31pm 160 1 2 45 100 75.7 74.5 29.41 74.5 473 0 1601 0.31 0.57 0.86 0.000
12:32pm 160 2 2 45 100 75.7 74.5 29.41 74.5 476 0 1604 0.31 0.57 0.86 0.000
12:33pm 170 3 4 45 100 75.7 74.6 29.41 74.6 477 0 1613 0.40 0.57 0.86 0.000
12:34pm 154 2 4 45 100 75.7 74.7 29.41 74.7 478 0 1621 0.49 0.57 0.86 0.000
12:35pm 166 2 4 45 100 75.7 74.8 29.41 74.8 477 0 1626 0.58 0.57 0.86 0.000
12:36pm 166 1 2 45 100 75.7 74.8 29.41 74.8 476 0 1625 0.57 0.57 0.86 0.000
12:37pm 166 3 3 45 100 75.7 74.9 29.41 74.9 476 0 1631 0.66 0.57 0.86 0.000
12:38pm 166 0 3 45 100 75.7 75.1 29.41 75.1 477 0 1645 0.85 0.57 0.86 0.000
12:39pm 166 1 3 45 100 75.7 75.2 29.41 75.2 478 0 1652 0.94 0.57 0.86 0.000
12:40pm 166 3 4 45 100 75.7 75.4 29.41 75.4 479 0 1666 1.12 0.57 0.86 0.000
12:41pm 166 3 3 45 100 75.7 75.5 29.41 75.5 479 0 1672 1.20 0.57 0.86 0.000
12:42pm 166 2 3 45 100 75.7 75.7 29.40 75.7 480 0 1686 1.38 0.57 0.86 0.000
12:43pm 166 3 4 45 100 75.7 75.9 29.40 75.9 482 0 1701 1.55 0.57 0.86 0.000
12:44pm 166 0 4 45 100 75.7 76.0 29.40 76.0 485 0 1710 1.63 0.57 0.86 0.000
12:45pm 166 1 4 45 100 75.9 76.1 29.40 76.1 488 0 1721 1.70 0.57 0.86 0.000
12:46pm 237 1 4 45 100 75.9 76.2 29.39 76.2 489 0 1729 1.77 0.57 0.86 0.000
12:47pm 237 0 4 45 100 75.9 76.3 29.40 76.3 488 0 1734 1.84 0.57 0.86 0.000
12:48pm 135 1 4 45 100 75.9 76.3 29.39 76.3 490 0 1736 1.81 0.57 0.86 0.000
12:49pm 138 2 4 45 100 75.9 76.3 29.39 76.3 490 0 1736 1.78 0.57 0.86 0.000
12:50pm 139 2 4 45 100 75.9 76.3 29.39 76.3 490 0 1736 1.75 0.57 0.86 0.000
12:51pm 218 3 4 45 100 75.9 76.4 29.39 76.4 490 0 1742 1.82 0.57 0.86 0.000
12:52pm 206 1 4 45 100 75.9 76.3 29.39 76.3 490 0 1736 1.69 0.57 0.86 0.000
12:53pm 90 0 4 45 100 75.9 76.3 29.39 76.3 491 0 1737 1.66 0.57 0.86 0.000
12:54pm 90 0 4 45 100 75.9 76.4 29.39 76.4 491 0 1744 1.73 0.57 0.86 0.000
12:55pm 90 0 4 45 100 75.9 76.4 29.39 76.4 492 0 1745 1.71 0.57 0.86 0.000
12:56pm 90 1 2 45 100 75.9 76.5 29.39 76.5 491 0 1750 1.78 0.57 0.86 0.000
12:57pm 220 3 3 45 100 75.9 76.6 29.39 76.6 489 0 1754 1.85 0.57 0.86 0.000
1:03pm 338 0 0 45 100 75.7 77.3 29.40 77.3 488 0 1797 0.00 0.57 0.86 0.000
1:04pm 336 1 1 45 100 75.7 77.4 29.40 77.4 488 0 1803 0.10 0.57 0.86 0.000
1:05pm 336 1 1 45 100 75.7 77.5 29.39 77.5 491 0 1813 0.20 0.57 0.86 0.000
1:06pm 189 4 4 45 100 75.7 77.6 29.39 77.6 491 0 1819 0.29 0.57 0.74 0.000
1:07pm 241 2 4 45 100 75.7 77.6 29.39 77.6 492 0 1820 0.29 0.57 0.74 0.000
1:08pm 231 1 4 45 99 75.7 77.6 29.39 77.6 491 75 1819 0.28 0.57 0.74 0.000
1:09pm 231 0 4 45 99 75.7 77.7 29.39 77.7 491 75 1825 0.38 0.57 0.74 0.000
1:10pm 231 0 4 45 99 75.7 77.9 29.40 77.9 488 75 1833 0.57 0.57 0.74 0.000
1:11pm 231 0 0 45 99 75.7 78.0 29.40 78.0 488 75 1840 0.66 0.57 0.73 0.000
1:12pm 189 3 5 45 98 75.7 78.1 29.40 78.1 488 152 1846 0.75 0.57 0.73 0.000
1:13pm 178 2 5 45 97 75.7 77.9 29.40 77.9 487 229 1832 0.54 0.57 0.73 0.000
1:14pm 183 1 5 45 98 75.6 78.0 29.40 78.0 488 151 1840 0.63 0.57 0.73 0.000
1:15pm 224 2 5 45 98 75.6 78.1 29.40 78.1 486 152 1844 0.72 0.57 0.73 0.000
1:16pm 138 5 5 45 98 75.6 78.2 29.40 78.2 485 152 1849 0.80 0.57 0.71 0.000
1:17pm 139 1 5 45 97 75.6 78.2 29.40 78.2 484 229 1848 0.79 0.57 0.71 0.000
1:18pm 234 1 6 45 97 75.6 78.4 29.40 78.4 485 229 1861 0.98 0.57 0.71 0.000
1:19pm 256 4 6 45 97 75.6 78.4 29.40 78.4 485 229 1861 0.96 0.57 0.71 0.000
1:20pm 187 3 6 45 96 75.6 78.5 29.40 78.5 486 308 1869 1.04 0.57 0.71 0.000
1:21pm 211 2 5 45 96 75.6 78.4 29.40 78.4 487 308 1864 0.93 0.57 0.70 0.000
1:22pm 219 1 5 45 95 75.6 78.4 29.40 78.4 486 387 1862 0.91 0.57 0.70 0.000
1:23pm 282 2 5 45 95 75.6 78.4 29.40 78.4 488 387 1865 0.90 0.57 0.70 0.000
1:24pm 238 2 5 45 95 75.6 78.4 29.40 78.4 488 387 1866 0.88 0.57 0.70 0.000
1:25pm 241 0 5 45 95 75.6 78.5 29.40 78.5 488 387 1871 0.97 0.57 0.70 0.000
1:26pm 241 0 0 45 95 75.6 78.5 29.40 78.5 486 387 1869 0.95 0.57 0.68 0.000
1:27pm 191 0 1 45 95 75.6 78.7 29.40 78.7 486 387 1881 1.13 0.57 0.68 0.000
1:28pm 359 1 3 45 96 75.6 78.7 29.40 78.7 486 308 1881 1.11 0.57 0.68 0.000
1:29pm 359 2 3 45 95 75.6 78.8 29.40 78.8 482 387 1883 1.20 0.57 0.68 0.000
1:30pm 359 1 3 45 95 75.6 78.9 29.40 78.9 481 387 1888 1.27 0.57 0.68 0.000
1:31pm 214 2 3 45 95 75.6 79.1 29.41 79.1 479 388 1898 1.45 0.57 0.68 0.000
1:32pm 305 3 3 45 95 75.6 79.1 29.41 79.1 479 388 1898 1.43 0.57 0.68 0.000
1:33pm 269 4 4 45 96 75.6 79.4 29.41 79.4 478 309 1916 1.70 0.57 0.68 0.000
1:34pm 345 1 4 45 95 75.6 79.5 29.41 79.5 479 388 1923 1.77 0.57 0.68 0.000
1:35pm 262 3 5 45 95 75.6 79.5 29.41 79.5 479 388 1923 1.74 0.57 0.68 0.000
1:36pm 101 2 4 45 94 75.6 79.6 29.41 79.6 479 469 1930 1.81 0.57 0.67 0.000
1:37pm 153 1 4 45 92 75.6 79.5 29.41 79.5 478 631 1922 1.68 0.57 0.67 0.000
1:38pm 202 0 4 45 93 75.6 79.7 29.41 79.7 478 550 1935 1.85 0.57 0.67 0.000
1:39pm 202 0 4 45 93 75.6 79.8 29.41 79.8 478 550 1941 1.92 0.57 0.67 0.000
1:40pm 205 4 4 45 93 75.6 79.9 29.41 79.9 478 550 1947 1.99 0.57 0.67 0.000
1:41pm 278 3 4 45 93 75.6 80.0 29.41 80.0 478 551 1954 2.05 0.57 0.67 0.000
1:42pm 169 0 4 45 91 75.6 80.0 29.41 80.0 479 715 1955 2.02 0.57 0.67 0.000
1:43pm 164 1 7 45 90 75.6 80.1 29.41 80.1 479 799 1961 2.08 0.57 0.67 0.000
1:44pm 231 2 7 45 90 75.6 80.3 29.41 80.3 479 799 1973 2.25 0.57 0.67 0.000
1:45pm 191 0 7 45 90 75.6 80.3 29.41 80.3 479 799 1973 2.21 0.57 0.67 0.000
1:46pm 28 1 2 45 90 75.6 80.5 29.40 80.5 482 800 1989 2.37 0.57 0.66 0.000
1:47pm 331 0 3 45 90 75.6 80.7 29.40 80.7 483 801 2003 2.53 0.57 0.66 0.000
1:48pm 331 1 3 45 91 75.6 80.9 29.40 80.9 484 718 2016 2.69 0.57 0.66 0.000
1:49pm 356 1 3 45 90 75.6 81.0 29.40 81.0 483 802 2022 2.74 0.57 0.66 0.000
1:50pm 81 2 3 45 90 75.6 81.1 29.40 81.1 484 802 2029 2.80 0.57 0.66 0.000
1:51pm 81 1 2 45 91 75.6 81.2 29.40 81.2 483 718 2034 2.85 0.57 0.64 0.000
1:52pm 310 1 4 45 90 75.6 81.3 29.40 81.3 482 803 2039 2.90 0.57 0.64 0.000
1:53pm 179 0 4 45 90 75.6 81.5 29.40 81.5 483 803 2053 3.05 0.57 0.64 0.000
1:54pm 274 0 4 45 90 75.6 81.6 29.40 81.6 485 804 2061 3.10 0.57 0.64 0.000
1:55pm 274 0 4 45 90 75.6 81.8 29.40 81.8 484 804 2072 3.25 0.57 0.64 0.000
1:56pm 274 0 0 45 89 75.6 81.9 29.40 81.9 483 889 2078 3.30 0.57 0.63 0.000
1:57pm 310 0 1 45 89 75.6 82.0 29.40 82.0 483 890 2084 3.34 0.57 0.63 0.000
1:58pm 310 0 1 45 90 75.6 82.1 29.40 82.1 483 805 2090 3.38 0.57 0.63 0.000
1:59pm 305 0 1 45 89 75.6 82.2 29.40 82.2 486 890 2100 3.43 0.57 0.63 0.000
2:00pm 310 0 1 45 88 75.6 82.2 29.40 82.2 487 976 2101 3.37 0.57 0.63 0.000
2:01pm 44 0 0 45 88 75.6 82.2 29.40 82.2 487 976 2101 3.31 0.57 0.62 0.000
2:02pm 171 0 0 45 87 75.6 82.3 29.40 82.3 485 1063 2105 3.36 0.57 0.62 0.000
2:03pm 300 0 0 45 86 75.6 82.4 29.40 82.4 485 1151 2111 3.40 0.57 0.62 0.000
2:04pm 279 0 0 45 89 75.6 82.6 29.39 82.6 489 892 2129 3.54 0.57 0.62 0.000
2:05pm 196 0 0 45 87 75.4 82.8 29.39 82.8 489 1066 2141 3.68 0.57 0.62 0.000
2:06pm 257 0 0 45 87 75.4 82.8 29.39 82.8 491 1066 2144 3.62 0.57 0.61 0.000
2:07pm 257 0 0 46 86 75.4 82.9 29.39 82.9 491 1154 2150 3.66 0.57 0.61 0.000
2:08pm 257 0 0 45 87 75.4 83.1 29.39 83.1 490 1067 2161 3.80 0.57 0.61 0.000
2:09pm 345 0 0 45 86 75.4 83.1 29.39 83.1 491 1155 2162 3.74 0.57 0.61 0.000
2:10pm 345 2 2 45 86 75.4 83.2 29.39 83.2 492 1155 2169 3.77 0.57 0.61 0.000
2:11pm 206 3 3 45 86 75.4 83.3 29.39 83.3 493 1156 2177 3.81 0.57 0.61 0.000
2:12pm 351 1 4 45 83 75.4 83.2 29.39 83.2 494 1424 2172 3.65 0.57 0.61 0.000
2:13pm 353 2 4 45 84 75.2 83.3 29.39 83.3 494 1334 2178 3.69 0.57 0.61 0.000
2:14pm 251 1 5 45 84 75.2 83.4 29.39 83.4 496 1335 2186 3.72 0.57 0.61 0.000
2:15pm 181 4 5 45 84 75.2 83.5 29.39 83.5 496 1335 2193 3.76 0.57 0.61 0.000
2:16pm 260 1 4 45 84 75.2 83.6 29.39 83.6 497 1336 2200 3.80 0.57 0.60 0.000
2:17pm 170 2 4 45 86 75.2 83.8 29.39 83.8 498 1158 2213 3.94 0.57 0.60 0.000
2:18pm 23 1 4 45 84 75.2 83.9 29.39 83.9 498 1337 2220 3.97 0.57 0.60 0.000
2:19pm 23 1 4 45 84 75.2 84.1 29.39 84.1 498 1339 2232 4.10 0.57 0.60 0.000
2:20pm 16 2 4 45 82 75.2 84.2 29.39 84.2 497 1522 2237 4.13 0.57 0.60 0.000
2:21pm 351 2 3 45 81 75.2 84.4 29.39 84.4 497 1616 2249 4.26 0.57 0.59 0.000
2:22pm 215 1 3 45 81 75.2 84.4 29.39 84.4 498 1616 2251 4.19 0.57 0.59 0.000
2:23pm 254 3 3 45 81 75.2 84.5 29.39 84.5 498 1617 2257 4.22 0.57 0.59 0.000
2:24pm 198 1 3 45 81 75.2 84.5 29.39 84.5 498 1617 2257 4.15 0.57 0.59 0.000
2:25pm 198 0 3 45 82 75.2 84.6 29.38 84.6 499 1525 2264 4.18 0.57 0.59 0.000
2:26pm 237 3 4 45 82 75.2 84.6 29.38 84.6 500 1525 2266 4.11 0.57 0.59 0.000
2:27pm 177 4 4 45 80 75.2 84.6 29.38 84.6 500 1712 2265 4.04 0.57 0.59 0.000
2:28pm 236 3 4 45 82 75.2 84.6 29.39 84.6 497 1525 2262 3.98 0.57 0.59 0.000
2:29pm 245 1 4 45 83 75.2 84.7 29.39 84.7 498 1433 2269 4.01 0.57 0.59 0.000
2:30pm 268 1 4 45 81 75.4 84.6 29.39 84.6 498 1618 2263 3.85 0.57 0.59 0.000
2:31pm 194 4 5 45 81 75.4 84.7 29.38 84.7 499 1618 2270 3.88 0.57 0.58 0.000
2:32pm 278 2 5 45 81 75.4 84.8 29.38 84.8 499 1619 2276 3.92 0.57 0.58 0.000
2:33pm 278 1 5 45 82 75.4 84.8 29.38 84.8 499 1526 2276 3.85 0.57 0.58 0.000
2:34pm 222 0 5 45 81 75.4 84.8 29.38 84.8 500 1619 2279 3.79 0.57 0.58 0.000
2:35pm 300 1 5 45 81 75.4 84.8 29.38 84.8 502 1619 2281 3.73 0.57 0.58 0.000
2:36pm 33 2 3 45 80 75.4 84.9 29.38 84.9 505 1714 2290 3.76 0.57 0.58 0.000
2:37pm 314 4 8 45 80 75.4 84.9 29.37 84.9 508 1714 2294 3.70 0.57 0.58 0.000
2:38pm 314 1 8 45 80 75.4 85.0 29.37 85.0 508 1715 2300 3.74 0.57 0.58 0.000
2:39pm 310 1 8 45 80 75.4 85.0 29.37 85.0 508 1715 2300 3.68 0.57 0.58 0.000
2:40pm 283 0 8 45 79 75.4 85.0 29.37 85.0 509 1810 2301 3.62 0.57 0.58 0.000
2:41pm 225 3 3 45 79 75.2 85.1 29.37 85.1 508 1811 2306 3.66 0.57 0.57 0.000
2:42pm 222 1 3 45 78 75.2 85.2 29.37 85.2 509 1908 2313 3.69 0.57 0.57 0.000
|
Data provided from: Mark Hofmann's Bel Air, MD Weather Station |